Wetterdaten: Samstag, 27.12.2014
Datum Zeit Temp. Aussen +5cm Feuchte Auss Luftdruck Regen Sonnenschein Regendauer Solar Windben
27.12.2014 00:00 1,9 C 1,1 C 96 % 1017,0 hPa 0,0 l/m 0 min 0 min 0 W/m 16,7 km/h (3 Bft)
27.12.2014 00:02 1,9 C 1,1 C 96 % 1016,9 hPa 0,0 l/m 0 min 0 min 0 W/m 12,6 km/h (3 Bft)
27.12.2014 00:05 1,9 C 1,1 C 96 % 1016,7 hPa 0,0 l/m 0 min 0 min 0 W/m 14,6 km/h (3 Bft)
27.12.2014 00:06 1,9 C 1,1 C 96 % 1016,6 hPa 0,0 l/m 0 min 0 min 0 W/m 14,6 km/h (3 Bft)
27.12.2014 00:08 1,9 C 1,1 C 96 % 1016,6 hPa 0,0 l/m 0 min 0 min 0 W/m 16,7 km/h (3 Bft)
27.12.2014 00:10 1,9 C 1,1 C 96 % 1016,6 hPa 0,0 l/m 0 min 0 min 0 W/m 18,8 km/h (3 Bft)
27.12.2014 00:12 1,9 C 1,1 C 96 % 1016,5 hPa 0,0 l/m 0 min 0 min 0 W/m 18,8 km/h (3 Bft)
27.12.2014 00:14 1,9 C 1,1 C 96 % 1016,3 hPa 0,0 l/m 0 min 0 min 0 W/m 16,7 km/h (3 Bft)
27.12.2014 00:16 1,9 C 1,1 C 96 % 1016,3 hPa 0,0 l/m 0 min 0 min 0 W/m 18,8 km/h (3 Bft)
27.12.2014 00:18 1,9 C 1,1 C 96 % 1016,3 hPa 0,0 l/m 0 min 0 min 0 W/m 16,7 km/h (3 Bft)
27.12.2014 00:20 1,9 C 1,1 C 96 % 1016,2 hPa 0,0 l/m 0 min 0 min 0 W/m 23,0 km/h (4 Bft)
27.12.2014 00:22 1,9 C 1,1 C 96 % 1016,1 hPa 0,0 l/m 0 min 0 min 0 W/m 14,6 km/h (3 Bft)
27.12.2014 00:24 1,9 C 1,1 C 95 % 1016,0 hPa 0,0 l/m 0 min 0 min 0 W/m 16,7 km/h (3 Bft)
27.12.2014 00:26 2,0 C 1,1 C 95 % 1015,9 hPa 0,0 l/m 0 min 0 min 0 W/m 14,6 km/h (3 Bft)
27.12.2014 00:28 2,0 C 1,1 C 95 % 1015,9 hPa 0,0 l/m 0 min 0 min 0 W/m 14,6 km/h (3 Bft)
27.12.2014 00:30 2,0 C 1,1 C 95 % 1015,8 hPa 0,0 l/m 0 min 0 min 0 W/m 18,8 km/h (3 Bft)
27.12.2014 00:32 2,0 C 1,1 C 95 % 1015,8 hPa 0,0 l/m 0 min 0 min 0 W/m 16,7 km/h (3 Bft)
27.12.2014 00:34 2,0 C 1,1 C 95 % 1015,6 hPa 0,0 l/m 0 min 0 min 0 W/m 23,0 km/h (4 Bft)
27.12.2014 00:36 2,0 C 1,1 C 95 % 1015,6 hPa 0,0 l/m 0 min 0 min 0 W/m 20,9 km/h (4 Bft)
27.12.2014 00:38 2,0 C 1,1 C 95 % 1015,5 hPa 0,0 l/m 0 min 0 min 0 W/m 20,9 km/h (4 Bft)
27.12.2014 00:40 2,0 C 1,1 C 95 % 1015,4 hPa 0,0 l/m 0 min 0 min 0 W/m 23,0 km/h (4 Bft)
27.12.2014 00:42 2,0 C 1,1 C 95 % 1015,4 hPa 0,0 l/m 0 min 0 min 0 W/m 18,8 km/h (3 Bft)
27.12.2014 00:44 2,0 C 1,1 C 95 % 1015,4 hPa 0,0 l/m 0 min 0 min 0 W/m 23,0 km/h (4 Bft)
27.12.2014 00:46 2,0 C 1,1 C 95 % 1015,3 hPa 0,0 l/m 0 min 0 min 0 W/m 23,0 km/h (4 Bft)
27.12.2014 00:48 2,0 C 1,1 C 95 % 1015,1 hPa 0,0 l/m 0 min 0 min 0 W/m 23,0 km/h (4 Bft)
27.12.2014 00:50 2,1 C 1,1 C 95 % 1015,1 hPa 0,0 l/m 0 min 0 min 0 W/m 20,9 km/h (4 Bft)
27.12.2014 00:52 2,1 C 1,1 C 94 % 1015,0 hPa 0,0 l/m 0 min 0 min 0 W/m 18,8 km/h (3 Bft)
27.12.2014 00:54 2,1 C 1,1 C 94 % 1015,0 hPa 0,0 l/m 0 min 0 min 0 W/m 29,3 km/h (5 Bft)
27.12.2014 00:56 2,1 C 1,1 C 94 % 1014,9 hPa 0,0 l/m 0 min 0 min 0 W/m 29,3 km/h (5 Bft)
27.12.2014 00:58 2,1 C 1,1 C 94 % 1014,8 hPa 0,0 l/m 0 min 0 min 0 W/m 20,9 km/h (4 Bft)
27.12.2014 01:00 2,1 C 1,1 C 94 % 1014,6 hPa 0,0 l/m 0 min 0 min 0 W/m 25,1 km/h (4 Bft)
27.12.2014 01:02 2,1 C 1,1 C 94 % 1014,5 hPa 0,0 l/m 0 min 0 min 0 W/m 27,2 km/h (4 Bft)
27.12.2014 01:04 2,1 C 1,1 C 94 % 1014,5 hPa 0,0 l/m 0 min 0 min 0 W/m 16,7 km/h (3 Bft)
27.12.2014 01:06 2,1 C 1,1 C 94 % 1014,4 hPa 0,0 l/m 0 min 0 min 0 W/m 18,8 km/h (3 Bft)
27.12.2014 01:08 2,1 C 1,1 C 94 % 1014,3 hPa 0,0 l/m 0 min 0 min 0 W/m 20,9 km/h (4 Bft)
27.12.2014 01:10 2,0 C 1,1 C 94 % 1014,3 hPa 0,0 l/m 0 min 0 min 0 W/m 27,2 km/h (4 Bft)
27.12.2014 01:12 2,0 C 1,1 C 94 % 1014,2 hPa 0,0 l/m 0 min 0 min 0 W/m 18,8 km/h (3 Bft)
27.12.2014 01:14 2,0 C 1,1 C 94 % 1014,1 hPa 0,0 l/m 0 min 0 min 0 W/m 20,9 km/h (4 Bft)
27.12.2014 01:16 2,0 C 1,1 C 94 % 1014,0 hPa 0,0 l/m 0 min 0 min 0 W/m 20,9 km/h (4 Bft)
27.12.2014 01:18 2,0 C 1,1 C 93 % 1013,9 hPa 0,0 l/m 0 min 0 min 0 W/m 16,7 km/h (3 Bft)
27.12.2014 01:20 2,0 C 1,1 C 93 % 1013,9 hPa 0,0 l/m 0 min 0 min 0 W/m 25,1 km/h (4 Bft)
27.12.2014 01:22 2,0 C 1,1 C 93 % 1013,8 hPa 0,0 l/m 0 min 0 min 0 W/m 23,0 km/h (4 Bft)
27.12.2014 01:24 2,0 C 1,1 C 93 % 1013,6 hPa 0,0 l/m 0 min 0 min 0 W/m 23,0 km/h (4 Bft)
27.12.2014 01:26 2,0 C 1,1 C 93 % 1013,5 hPa 0,0 l/m 0 min 0 min 0 W/m 29,3 km/h (5 Bft)
27.12.2014 01:28 2,0 C 1,1 C 93 % 1013,4 hPa 0,0 l/m 0 min 0 min 0 W/m 20,9 km/h (4 Bft)
27.12.2014 01:30 2,0 C 1,1 C 93 % 1013,2 hPa 0,0 l/m 0 min 0 min 0 W/m 23,0 km/h (4 Bft)
27.12.2014 01:32 2,1 C 1,1 C 93 % 1013,2 hPa 0,0 l/m 0 min 0 min 0 W/m 23,0 km/h (4 Bft)
27.12.2014 01:34 2,1 C 1,1 C 93 % 1013,1 hPa 0,0 l/m 0 min 0 min 0 W/m 18,8 km/h (3 Bft)
27.12.2014 01:36 2,1 C 1,1 C 93 % 1013,1 hPa 0,0 l/m 0 min 0 min 0 W/m 25,1 km/h (4 Bft)
27.12.2014 01:38 2,0 C 1,1 C 93 % 1013,0 hPa 0,0 l/m 0 min 0 min 0 W/m 20,9 km/h (4 Bft)
27.12.2014 01:40 2,1 C 1,1 C 93 % 1012,9 hPa 0,0 l/m 0 min 0 min 0 W/m 27,2 km/h (4 Bft)
27.12.2014 01:42 2,1 C 1,1 C 93 % 1012,8 hPa 0,0 l/m 0 min 0 min 0 W/m 25,1 km/h (4 Bft)
27.12.2014 01:44 2,1 C 1,1 C 93 % 1012,7 hPa 0,0 l/m 0 min 0 min 0 W/m 27,2 km/h (4 Bft)
27.12.2014 01:46 2,1 C 1,1 C 93 % 1012,6 hPa 0,0 l/m 0 min 0 min 0 W/m 27,2 km/h (4 Bft)
27.12.2014 01:48 2,1 C 1,1 C 93 % 1012,6 hPa 0,0 l/m 0 min 0 min 0 W/m 20,9 km/h (4 Bft)
27.12.2014 01:50 2,1 C 1,1 C 93 % 1012,5 hPa 0,0 l/m 0 min 0 min 0 W/m 25,1 km/h (4 Bft)
27.12.2014 01:52 2,1 C 1,1 C 93 % 1012,4 hPa 0,0 l/m 0 min 0 min 0 W/m 31,4 km/h (5 Bft)
27.12.2014 01:54 2,1 C 1,1 C 93 % 1012,4 hPa 0,0 l/m 0 min 0 min 0 W/m 27,2 km/h (4 Bft)
27.12.2014 01:56 2,1 C 1,1 C 93 % 1012,3 hPa 0,0 l/m 0 min 0 min 0 W/m 23,0 km/h (4 Bft)
27.12.2014 01:58 2,1 C 1,1 C 93 % 1012,3 hPa 0,0 l/m 0 min 0 min 0 W/m 18,8 km/h (3 Bft)
27.12.2014 02:00 2,1 C 1,1 C 93 % 1012,2 hPa 0,0 l/m 0 min 0 min 0 W/m 25,1 km/h (4 Bft)
27.12.2014 02:02 2,1 C 1,1 C 93 % 1012,1 hPa 0,0 l/m 0 min 0 min 0 W/m 20,9 km/h (4 Bft)
27.12.2014 02:04 2,1 C 1,1 C 93 % 1012,0 hPa 0,0 l/m 0 min 0 min 0 W/m 20,9 km/h (4 Bft)
27.12.2014 02:06 2,2 C 1,1 C 93 % 1012,0 hPa 0,0 l/m 0 min 0 min 0 W/m 20,9 km/h (4 Bft)
27.12.2014 02:08 2,1 C 1,1 C 93 % 1011,9 hPa 0,0 l/m 0 min 0 min 0 W/m 25,1 km/h (4 Bft)
27.12.2014 02:10 2,2 C 1,1 C 93 % 1011,8 hPa 0,0 l/m 0 min 0 min 0 W/m 33,5 km/h (5 Bft)
27.12.2014 02:12 2,2 C 1,1 C 93 % 1011,8 hPa 0,0 l/m 0 min 0 min 0 W/m 33,5 km/h (5 Bft)
27.12.2014 02:14 2,2 C 1,1 C 93 % 1011,7 hPa 0,0 l/m 0 min 0 min 0 W/m 31,4 km/h (5 Bft)
27.12.2014 02:16 2,2 C 1,1 C 93 % 1011,6 hPa 0,0 l/m 0 min 0 min 0 W/m 33,5 km/h (5 Bft)
27.12.2014 02:18 2,2 C 1,1 C 93 % 1011,6 hPa 0,0 l/m 0 min 0 min 0 W/m 27,2 km/h (4 Bft)
27.12.2014 02:20 2,2 C 1,1 C 93 % 1011,4 hPa 0,0 l/m 0 min 0 min 0 W/m 29,3 km/h (5 Bft)
27.12.2014 02:22 2,2 C 1,1 C 92 % 1011,3 hPa 0,0 l/m 0 min 0 min 0 W/m 39,7 km/h (6 Bft)
27.12.2014 02:24 2,2 C 1,1 C 92 % 1011,2 hPa 0,0 l/m 0 min 0 min 0 W/m 48,1 km/h (6 Bft)
27.12.2014 02:26 2,2 C 1,1 C 92 % 1011,2 hPa 0,0 l/m 0 min 0 min 0 W/m 23,0 km/h (4 Bft)
27.12.2014 02:28 2,2 C 1,1 C 92 % 1011,1 hPa 0,0 l/m 0 min 0 min 0 W/m 35,6 km/h (5 Bft)
27.12.2014 02:30 2,2 C 1,1 C 92 % 1011,1 hPa 0,0 l/m 0 min 0 min 0 W/m 31,4 km/h (5 Bft)
27.12.2014 02:32 2,2 C 1,1 C 92 % 1011,1 hPa 0,0 l/m 0 min 0 min 0 W/m 29,3 km/h (5 Bft)
27.12.2014 02:34 2,2 C 1,1 C 92 % 1011,0 hPa 0,0 l/m 0 min 0 min 0 W/m 31,4 km/h (5 Bft)
27.12.2014 02:36 2,2 C 1,1 C 92 % 1010,9 hPa 0,0 l/m 0 min 0 min 0 W/m 29,3 km/h (5 Bft)
27.12.2014 02:38 2,2 C 1,1 C 92 % 1010,7 hPa 0,0 l/m 0 min 0 min 0 W/m 29,3 km/h (5 Bft)
27.12.2014 02:40 2,2 C 1,1 C 92 % 1010,7 hPa 0,0 l/m 0 min 0 min 0 W/m 25,1 km/h (4 Bft)
27.12.2014 02:42 2,2 C 1,1 C 92 % 1010,7 hPa 0,0 l/m 0 min 0 min 0 W/m 31,4 km/h (5 Bft)
27.12.2014 02:44 2,2 C 1,1 C 92 % 1010,6 hPa 0,0 l/m 0 min 0 min 0 W/m 31,4 km/h (5 Bft)
27.12.2014 02:46 2,2 C 1,1 C 92 % 1010,5 hPa 0,0 l/m 0 min 0 min 0 W/m 33,5 km/h (5 Bft)
27.12.2014 02:48 2,2 C 1,1 C 92 % 1010,5 hPa 0,0 l/m 0 min 0 min 0 W/m 35,6 km/h (5 Bft)
27.12.2014 02:50 2,2 C 1,1 C 92 % 1010,4 hPa 0,0 l/m 0 min 0 min 0 W/m 31,4 km/h (5 Bft)
27.12.2014 02:52 2,2 C 1,1 C 92 % 1010,2 hPa 0,0 l/m 0 min 0 min 0 W/m 37,7 km/h (5 Bft)
27.12.2014 02:54 2,3 C 1,1 C 92 % 1010,2 hPa 0,0 l/m 0 min 0 min 0 W/m 29,3 km/h (5 Bft)
27.12.2014 02:56 2,3 C 1,1 C 92 % 1010,1 hPa 0,0 l/m 0 min 0 min 0 W/m 29,3 km/h (5 Bft)
27.12.2014 02:58 2,3 C 1,1 C 92 % 1010,1 hPa 0,0 l/m 0 min 0 min 0 W/m 31,4 km/h (5 Bft)
27.12.2014 03:00 2,3 C 1,1 C 92 % 1010,1 hPa 0,0 l/m 0 min 0 min 0 W/m 31,4 km/h (5 Bft)
27.12.2014 03:02 2,3 C 1,1 C 92 % 1010,0 hPa 0,0 l/m 0 min 0 min 0 W/m 29,3 km/h (5 Bft)
27.12.2014 03:04 2,3 C 1,1 C 92 % 1009,9 hPa 0,0 l/m 0 min 0 min 0 W/m 23,0 km/h (4 Bft)
27.12.2014 03:06 2,3 C 1,1 C 92 % 1009,9 hPa 0,0 l/m 0 min 0 min 0 W/m 31,4 km/h (5 Bft)
27.12.2014 03:08 2,3 C 1,1 C 92 % 1009,7 hPa 0,0 l/m 0 min 0 min 0 W/m 31,4 km/h (5 Bft)
27.12.2014 03:10 2,3 C 1,1 C 92 % 1009,7 hPa 0,0 l/m 0 min 0 min 0 W/m 33,5 km/h (5 Bft)
27.12.2014 03:12 2,3 C 1,1 C 92 % 1009,5 hPa 0,0 l/m 0 min 0 min 0 W/m 31,4 km/h (5 Bft)
27.12.2014 03:14 2,3 C 1,1 C 92 % 1009,4 hPa 0,0 l/m 0 min 0 min 0 W/m 27,2 km/h (4 Bft)
27.12.2014 03:16 2,4 C 1,1 C 92 % 1009,3 hPa 0,0 l/m 0 min 0 min 0 W/m 31,4 km/h (5 Bft)
27.12.2014 03:18 2,4 C 1,1 C 92 % 1009,3 hPa 0,0 l/m 0 min 0 min 0 W/m 23,0 km/h (4 Bft)
27.12.2014 03:20 2,4 C 1,1 C 92 % 1009,2 hPa 0,0 l/m 0 min 2 min 0 W/m 31,4 km/h (5 Bft)
27.12.2014 03:22 2,4 C 1,1 C 92 % 1009,1 hPa 0,0 l/m 0 min 2 min 0 W/m 37,7 km/h (5 Bft)
27.12.2014 03:24 2,4 C 1,1 C 92 % 1009,0 hPa 0,0 l/m 0 min 2 min 0 W/m 29,3 km/h (5 Bft)
27.12.2014 03:26 2,4 C 1,1 C 92 % 1008,9 hPa 0,0 l/m 0 min 2 min 0 W/m 29,3 km/h (5 Bft)
27.12.2014 03:28 2,4 C 1,1 C 92 % 1008,8 hPa 0,0 l/m 0 min 2 min 0 W/m 41,8 km/h (6 Bft)
27.12.2014 03:30 2,4 C 1,1 C 92 % 1008,7 hPa 0,0 l/m 0 min 2 min 0 W/m 37,7 km/h (5 Bft)
27.12.2014 03:32 2,4 C 1,1 C 92 % 1008,6 hPa 0,0 l/m 0 min 2 min 0 W/m 46,0 km/h (6 Bft)
27.12.2014 03:34 2,4 C 1,1 C 92 % 1008,5 hPa 0,0 l/m 0 min 2 min 0 W/m 31,4 km/h (5 Bft)
27.12.2014 03:36 2,4 C 1,1 C 92 % 1008,4 hPa 0,0 l/m 0 min 2 min 0 W/m 27,2 km/h (4 Bft)
27.12.2014 03:38 2,4 C 1,1 C 92 % 1008,4 hPa 0,0 l/m 0 min 2 min 0 W/m 37,7 km/h (5 Bft)
27.12.2014 03:40 2,4 C 1,1 C 92 % 1008,3 hPa 0,0 l/m 0 min 2 min 0 W/m 39,7 km/h (6 Bft)
27.12.2014 03:42 2,4 C 1,1 C 92 % 1008,3 hPa 0,0 l/m 0 min 2 min 0 W/m 48,1 km/h (6 Bft)
27.12.2014 03:44 2,4 C 1,1 C 92 % 1008,2 hPa 0,0 l/m 0 min 2 min 0 W/m 29,3 km/h (5 Bft)
27.12.2014 03:46 2,4 C 1,1 C 92 % 1008,1 hPa 0,0 l/m 0 min 2 min 0 W/m 29,3 km/h (5 Bft)
27.12.2014 03:48 2,4 C 1,1 C 92 % 1008,0 hPa 0,0 l/m 0 min 2 min 0 W/m 25,1 km/h (4 Bft)
27.12.2014 03:50 2,4 C 1,1 C 92 % 1008,0 hPa 0,2 l/m 0 min 2 min 0 W/m 27,2 km/h (4 Bft)
27.12.2014 03:52 2,4 C 1,1 C 92 % 1007,9 hPa 0,0 l/m 0 min 2 min 0 W/m 29,3 km/h (5 Bft)
27.12.2014 03:54 2,4 C 0,6 C 92 % 1007,8 hPa 0,0 l/m 0 min 2 min 0 W/m 43,9 km/h (6 Bft)
27.12.2014 03:56 2,3 C 0,6 C 92 % 1007,6 hPa 0,0 l/m 0 min 2 min 0 W/m 35,6 km/h (5 Bft)
27.12.2014 03:58 2,3 C 0,6 C 92 % 1007,6 hPa 0,2 l/m 0 min 2 min 0 W/m 35,6 km/h (5 Bft)
27.12.2014 04:00 2,3 C 0,6 C 92 % 1007,3 hPa 0,0 l/m 0 min 2 min 0 W/m 27,2 km/h (4 Bft)
27.12.2014 04:02 2,2 C 0,6 C 92 % 1007,3 hPa 0,0 l/m 0 min 2 min 0 W/m 27,2 km/h (4 Bft)
27.12.2014 04:04 2,2 C 0,6 C 92 % 1007,2 hPa 0,0 l/m 0 min 2 min 0 W/m 50,2 km/h (7 Bft)
27.12.2014 04:06 2,2 C 0,6 C 92 % 1007,1 hPa 0,0 l/m 0 min 2 min 0 W/m 37,7 km/h (5 Bft)
27.12.2014 04:08 2,1 C 0,6 C 92 % 1007,0 hPa 0,2 l/m 0 min 2 min 0 W/m 39,7 km/h (6 Bft)
27.12.2014 04:10 2,1 C 0,6 C 93 % 1006,9 hPa 0,0 l/m 0 min 2 min 0 W/m 33,5 km/h (5 Bft)
27.12.2014 04:12 2,0 C 0,6 C 93 % 1006,8 hPa 0,0 l/m 0 min 2 min 0 W/m 37,7 km/h (5 Bft)
27.12.2014 04:14 2,0 C 0,6 C 93 % 1006,7 hPa 0,2 l/m 0 min 2 min 0 W/m 33,5 km/h (5 Bft)
27.12.2014 04:16 1,9 C 0,6 C 93 % 1006,6 hPa 0,0 l/m 0 min 2 min 0 W/m 39,7 km/h (6 Bft)
27.12.2014 04:18 1,9 C 0,6 C 93 % 1006,5 hPa 0,0 l/m 0 min 2 min 0 W/m 37,7 km/h (5 Bft)
27.12.2014 04:20 1,9 C 0,6 C 93 % 1006,5 hPa 0,0 l/m 0 min 2 min 0 W/m 48,1 km/h (6 Bft)
27.12.2014 04:22 1,8 C 0,6 C 93 % 1006,3 hPa 0,0 l/m 0 min 2 min 0 W/m 33,5 km/h (5 Bft)
27.12.2014 04:24 1,8 C 0,6 C 93 % 1006,1 hPa 0,2 l/m 0 min 2 min 0 W/m 31,4 km/h (5 Bft)
27.12.2014 04:26 1,8 C 0,0 C 93 % 1006,0 hPa 0,0 l/m 0 min 2 min 0 W/m 29,3 km/h (5 Bft)
27.12.2014 04:28 1,7 C 0,0 C 93 % 1005,9 hPa 0,0 l/m 0 min 2 min 0 W/m 46,0 km/h (6 Bft)
27.12.2014 04:30 1,7 C 0,0 C 93 % 1005,8 hPa 0,2 l/m 0 min 2 min 0 W/m 43,9 km/h (6 Bft)
27.12.2014 04:32 1,7 C 0,0 C 94 % 1005,7 hPa 0,0 l/m 0 min 2 min 0 W/m 43,9 km/h (6 Bft)
27.12.2014 04:34 1,6 C 0,0 C 94 % 1005,5 hPa 0,0 l/m 0 min 2 min 0 W/m 48,1 km/h (6 Bft)
27.12.2014 04:36 1,6 C 0,0 C 94 % 1005,2 hPa 0,0 l/m 0 min 2 min 0 W/m 50,2 km/h (7 Bft)
27.12.2014 04:38 1,5 C 0,0 C 94 % 1005,2 hPa 0,2 l/m 0 min 2 min 0 W/m 43,9 km/h (6 Bft)
27.12.2014 04:40 1,5 C 0,0 C 94 % 1005,0 hPa 0,0 l/m 0 min 2 min 0 W/m 39,7 km/h (6 Bft)
27.12.2014 04:42 1,4 C 0,0 C 94 % 1005,0 hPa 0,0 l/m 0 min 2 min 0 W/m 35,6 km/h (5 Bft)
27.12.2014 04:44 1,4 C 0,0 C 94 % 1005,0 hPa 0,2 l/m 0 min 2 min 0 W/m 33,5 km/h (5 Bft)
27.12.2014 04:46 1,4 C 0,0 C 94 % 1004,8 hPa 0,0 l/m 0 min 2 min 0 W/m 46,0 km/h (6 Bft)
27.12.2014 04:48 1,3 C -0,6 C 94 % 1004,8 hPa 0,0 l/m 0 min 2 min 0 W/m 35,6 km/h (5 Bft)
27.12.2014 04:50 1,3 C -0,6 C 94 % 1004,7 hPa 0,0 l/m 0 min 2 min 0 W/m 37,7 km/h (5 Bft)
27.12.2014 04:52 1,2 C -0,6 C 94 % 1004,5 hPa 0,2 l/m 0 min 2 min 0 W/m 41,8 km/h (6 Bft)
27.12.2014 04:54 1,2 C -0,6 C 94 % 1004,5 hPa 0,0 l/m 0 min 2 min 0 W/m 43,9 km/h (6 Bft)
27.12.2014 04:56 1,2 C -0,6 C 94 % 1004,3 hPa 0,2 l/m 0 min 2 min 0 W/m 41,8 km/h (6 Bft)
27.12.2014 04:58 1,1 C -0,6 C 94 % 1004,2 hPa 0,0 l/m 0 min 2 min 0 W/m 35,6 km/h (5 Bft)
27.12.2014 05:00 1,0 C -0,6 C 94 % 1004,1 hPa 0,0 l/m 0 min 2 min 0 W/m 43,9 km/h (6 Bft)
27.12.2014 05:02 1,0 C -0,6 C 94 % 1004,0 hPa 0,0 l/m 0 min 2 min 0 W/m 46,0 km/h (6 Bft)
27.12.2014 05:04 0,9 C -0,6 C 94 % 1004,0 hPa 0,0 l/m 0 min 2 min 0 W/m 46,0 km/h (6 Bft)
27.12.2014 05:06 0,9 C -0,6 C 95 % 1003,9 hPa 0,2 l/m 0 min 2 min 0 W/m 39,7 km/h (6 Bft)
27.12.2014 05:08 0,9 C -0,6 C 95 % 1003,8 hPa 0,0 l/m 0 min 2 min 0 W/m 54,4 km/h (7 Bft)
27.12.2014 05:10 0,9 C -0,6 C 95 % 1003,7 hPa 0,0 l/m 0 min 2 min 0 W/m 46,0 km/h (6 Bft)
27.12.2014 05:12 0,9 C -1,1 C 95 % 1003,6 hPa 0,2 l/m 0 min 2 min 0 W/m 48,1 km/h (6 Bft)
27.12.2014 05:14 0,8 C -0,6 C 95 % 1003,3 hPa 0,0 l/m 0 min 2 min 0 W/m 43,9 km/h (6 Bft)
27.12.2014 05:16 0,8 C -0,6 C 95 % 1003,2 hPa 0,0 l/m 0 min 2 min 0 W/m 50,2 km/h (7 Bft)
27.12.2014 05:18 0,8 C -0,6 C 95 % 1003,0 hPa 0,0 l/m 0 min 2 min 0 W/m 56,5 km/h (7 Bft)
27.12.2014 05:20 0,8 C -1,1 C 95 % 1002,9 hPa 0,0 l/m 0 min 2 min 0 W/m 46,0 km/h (6 Bft)
27.12.2014 05:22 0,7 C -0,6 C 95 % 1002,8 hPa 0,2 l/m 0 min 2 min 0 W/m 31,4 km/h (5 Bft)
27.12.2014 05:24 0,7 C -1,1 C 95 % 1002,7 hPa 0,0 l/m 0 min 2 min 0 W/m 50,2 km/h (7 Bft)
27.12.2014 05:26 0,7 C -0,6 C 95 % 1002,4 hPa 0,0 l/m 0 min 2 min 0 W/m 54,4 km/h (7 Bft)
27.12.2014 05:28 0,7 C -1,1 C 95 % 1002,4 hPa 0,2 l/m 0 min 2 min 0 W/m 56,5 km/h (7 Bft)
27.12.2014 05:30 0,7 C -1,1 C 95 % 1002,4 hPa 0,0 l/m 0 min 2 min 0 W/m 52,3 km/h (7 Bft)
27.12.2014 05:32 0,6 C -1,1 C 95 % 1002,2 hPa 0,0 l/m 0 min 2 min 0 W/m 41,8 km/h (6 Bft)
27.12.2014 05:34 0,6 C -1,1 C 95 % 1002,0 hPa 0,0 l/m 0 min 2 min 0 W/m 43,9 km/h (6 Bft)
27.12.2014 05:36 0,6 C -0,6 C 95 % 1001,9 hPa 0,0 l/m 0 min 2 min 0 W/m 50,2 km/h (7 Bft)
27.12.2014 05:38 0,6 C -1,1 C 95 % 1001,8 hPa 0,0 l/m 0 min 2 min 0 W/m 52,3 km/h (7 Bft)
27.12.2014 05:40 0,6 C -1,1 C 95 % 1001,6 hPa 0,0 l/m 0 min 2 min 0 W/m 35,6 km/h (5 Bft)
27.12.2014 05:42 0,6 C -1,1 C 95 % 1001,6 hPa 0,2 l/m 0 min 2 min 0 W/m 39,7 km/h (6 Bft)
27.12.2014 05:44 0,6 C -1,1 C 96 % 1001,3 hPa 0,0 l/m 0 min 2 min 0 W/m 54,4 km/h (7 Bft)
27.12.2014 05:46 0,6 C -0,6 C 96 % 1001,2 hPa 0,0 l/m 0 min 2 min 0 W/m 48,1 km/h (6 Bft)
27.12.2014 05:48 0,6 C -0,6 C 96 % 1001,2 hPa 0,2 l/m 0 min 2 min 0 W/m 31,4 km/h (5 Bft)
27.12.2014 05:50 0,6 C -1,1 C 96 % 1001,1 hPa 0,0 l/m 0 min 2 min 0 W/m 58,6 km/h (7 Bft)
27.12.2014 05:52 0,6 C -0,6 C 96 % 1001,1 hPa 0,0 l/m 0 min 2 min 0 W/m 48,1 km/h (6 Bft)
27.12.2014 05:54 0,6 C -0,6 C 96 % 1000,9 hPa 0,0 l/m 0 min 2 min 0 W/m 60,7 km/h (7 Bft)
27.12.2014 05:56 0,6 C -0,6 C 96 % 1000,9 hPa 0,0 l/m 0 min 2 min 0 W/m 37,7 km/h (5 Bft)
27.12.2014 05:58 0,7 C -0,6 C 96 % 1000,8 hPa 0,2 l/m 0 min 2 min 0 W/m 50,2 km/h (7 Bft)
27.12.2014 06:00 0,7 C -0,6 C 96 % 1000,6 hPa 0,0 l/m 0 min 2 min 0 W/m 62,8 km/h (8 Bft)
27.12.2014 06:02 0,7 C -0,6 C 96 % 1000,6 hPa 0,0 l/m 0 min 2 min 0 W/m 62,8 km/h (8 Bft)
27.12.2014 06:05 0,7 C -0,6 C 96 % 1000,4 hPa 0,2 l/m 0 min 2 min 0 W/m 52,3 km/h (7 Bft)
27.12.2014 06:08 0,7 C -0,6 C 96 % 1000,1 hPa 0,2 l/m 0 min 2 min 0 W/m 58,6 km/h (7 Bft)
27.12.2014 06:10 0,7 C -0,6 C 96 % 1000,2 hPa 0,0 l/m 0 min 2 min 0 W/m 66,9 km/h (8 Bft)
27.12.2014 06:12 0,7 C -0,6 C 96 % 1000,0 hPa 0,0 l/m 0 min 2 min 0 W/m 60,7 km/h (7 Bft)
27.12.2014 06:14 0,7 C -0,6 C 96 % 999,9 hPa 0,0 l/m 0 min 2 min 0 W/m 60,7 km/h (7 Bft)
27.12.2014 06:16 0,7 C -0,6 C 96 % 999,9 hPa 0,0 l/m 0 min 2 min 0 W/m 64,9 km/h (8 Bft)
27.12.2014 06:18 0,7 C -1,1 C 96 % 999,7 hPa 0,0 l/m 0 min 2 min 0 W/m 48,1 km/h (6 Bft)
27.12.2014 06:20 0,7 C -1,1 C 96 % 999,8 hPa 0,2 l/m 0 min 2 min 0 W/m 52,3 km/h (7 Bft)
27.12.2014 06:22 0,7 C -1,1 C 96 % 999,7 hPa 0,0 l/m 0 min 2 min 0 W/m 43,9 km/h (6 Bft)
27.12.2014 06:24 0,6 C -1,1 C 96 % 999,6 hPa 0,0 l/m 0 min 2 min 0 W/m 50,2 km/h (7 Bft)
27.12.2014 06:26 0,6 C -1,1 C 96 % 999,6 hPa 0,0 l/m 0 min 2 min 0 W/m 48,1 km/h (6 Bft)
27.12.2014 06:28 0,6 C -1,1 C 96 % 999,6 hPa 0,0 l/m 0 min 2 min 0 W/m 41,8 km/h (6 Bft)
27.12.2014 06:30 0,5 C -1,1 C 96 % 999,5 hPa 0,0 l/m 0 min 2 min 0 W/m 35,6 km/h (5 Bft)
27.12.2014 06:32 0,5 C -1,1 C 96 % 999,4 hPa 0,0 l/m 0 min 2 min 0 W/m 43,9 km/h (6 Bft)
27.12.2014 06:34 0,5 C -1,1 C 96 % 999,3 hPa 0,0 l/m 0 min 2 min 0 W/m 46,0 km/h (6 Bft)
27.12.2014 06:36 0,5 C -1,1 C 96 % 999,4 hPa 0,0 l/m 0 min 2 min 0 W/m 50,2 km/h (7 Bft)
27.12.2014 06:38 0,5 C -1,1 C 96 % 999,3 hPa 0,0 l/m 0 min 2 min 0 W/m 46,0 km/h (6 Bft)
27.12.2014 06:40 0,5 C -1,1 C 96 % 999,3 hPa 0,0 l/m 0 min 2 min 0 W/m 43,9 km/h (6 Bft)
27.12.2014 06:42 0,5 C -1,1 C 96 % 999,2 hPa 0,0 l/m 0 min 2 min 0 W/m 31,4 km/h (5 Bft)
27.12.2014 06:44 0,4 C -1,1 C 96 % 999,1 hPa 0,0 l/m 0 min 2 min 0 W/m 27,2 km/h (4 Bft)
27.12.2014 06:46 0,4 C -1,1 C 97 % 999,1 hPa 0,0 l/m 0 min 2 min 0 W/m 58,6 km/h (7 Bft)
27.12.2014 06:48 0,4 C -1,1 C 97 % 998,9 hPa 0,0 l/m 0 min 2 min 0 W/m 60,7 km/h (7 Bft)
27.12.2014 06:50 0,4 C -1,1 C 97 % 998,9 hPa 0,0 l/m 0 min 2 min 0 W/m 43,9 km/h (6 Bft)
27.12.2014 06:52 0,4 C -1,1 C 97 % 998,8 hPa 0,2 l/m 0 min 2 min 0 W/m 43,9 km/h (6 Bft)
27.12.2014 06:54 0,4 C -1,1 C 97 % 998,7 hPa 0,0 l/m 0 min 2 min 0 W/m 48,1 km/h (6 Bft)
27.12.2014 06:56 0,4 C -1,1 C 97 % 998,6 hPa 0,0 l/m 0 min 2 min 0 W/m 46,0 km/h (6 Bft)
27.12.2014 06:58 0,4 C -1,1 C 97 % 998,6 hPa 0,0 l/m 0 min 2 min 0 W/m 29,3 km/h (5 Bft)
27.12.2014 07:00 0,4 C -1,1 C 97 % 998,6 hPa 0,0 l/m 0 min 2 min 0 W/m 27,2 km/h (4 Bft)
27.12.2014 07:02 0,4 C -1,1 C 96 % 998,5 hPa 0,0 l/m 0 min 2 min 0 W/m 33,5 km/h (5 Bft)
27.12.2014 07:04 0,4 C -1,1 C 96 % 998,5 hPa 0,0 l/m 0 min 2 min 0 W/m 41,8 km/h (6 Bft)
27.12.2014 07:06 0,4 C -1,1 C 97 % 998,5 hPa 0,0 l/m 0 min 2 min 0 W/m 41,8 km/h (6 Bft)
27.12.2014 07:08 0,3 C -1,1 C 97 % 998,4 hPa 0,0 l/m 0 min 2 min 0 W/m 50,2 km/h (7 Bft)
27.12.2014 07:10 0,3 C -1,1 C 97 % 998,3 hPa 0,2 l/m 0 min 2 min 0 W/m 33,5 km/h (5 Bft)
27.12.2014 07:12 0,3 C -1,1 C 97 % 998,3 hPa 0,0 l/m 0 min 2 min 0 W/m 35,6 km/h (5 Bft)
27.12.2014 07:14 0,3 C -1,1 C 97 % 998,2 hPa 0,0 l/m 0 min 2 min 0 W/m 33,5 km/h (5 Bft)
27.12.2014 07:16 0,3 C -1,1 C 97 % 998,1 hPa 0,0 l/m 0 min 2 min 0 W/m 31,4 km/h (5 Bft)
27.12.2014 07:18 0,3 C -1,1 C 97 % 998,2 hPa 0,0 l/m 0 min 2 min 0 W/m 41,8 km/h (6 Bft)
27.12.2014 07:20 0,3 C -1,1 C 97 % 998,0 hPa 0,0 l/m 0 min 2 min 0 W/m 41,8 km/h (6 Bft)
27.12.2014 07:22 0,3 C -1,1 C 97 % 998,1 hPa 0,0 l/m 0 min 2 min 0 W/m 35,6 km/h (5 Bft)
27.12.2014 07:24 0,3 C -1,1 C 97 % 998,1 hPa 0,0 l/m 0 min 2 min 0 W/m 41,8 km/h (6 Bft)
27.12.2014 07:26 0,3 C -1,1 C 97 % 997,9 hPa 0,0 l/m 0 min 2 min 0 W/m 56,5 km/h (7 Bft)
27.12.2014 07:28 0,3 C -1,1 C 97 % 998,0 hPa 0,0 l/m 0 min 2 min 0 W/m 46,0 km/h (6 Bft)
27.12.2014 07:30 0,3 C -1,1 C 97 % 997,9 hPa 0,0 l/m 0 min 2 min 0 W/m 35,6 km/h (5 Bft)
27.12.2014 07:32 0,3 C -1,1 C 97 % 997,8 hPa 0,0 l/m 0 min 2 min 0 W/m 46,0 km/h (6 Bft)
27.12.2014 07:34 0,3 C -1,1 C 97 % 997,7 hPa 0,2 l/m 0 min 2 min 0 W/m 37,7 km/h (5 Bft)
27.12.2014 07:36 0,3 C -1,1 C 97 % 997,7 hPa 0,0 l/m 0 min 2 min 0 W/m 37,7 km/h (5 Bft)
27.12.2014 07:38 0,3 C -1,1 C 97 % 997,7 hPa 0,0 l/m 0 min 2 min 0 W/m 31,4 km/h (5 Bft)
27.12.2014 07:40 0,3 C -1,1 C 97 % 997,7 hPa 0,0 l/m 0 min 0 min 0 W/m 31,4 km/h (5 Bft)
27.12.2014 07:42 0,3 C -1,1 C 97 % 997,7 hPa 0,0 l/m 0 min 0 min 0 W/m 33,5 km/h (5 Bft)
27.12.2014 07:44 0,3 C -1,1 C 97 % 997,5 hPa 0,0 l/m 0 min 0 min 0 W/m 46,0 km/h (6 Bft)
27.12.2014 07:46 0,3 C -1,1 C 97 % 997,4 hPa 0,0 l/m 0 min 2 min 0 W/m 52,3 km/h (7 Bft)
27.12.2014 07:48 0,3 C -1,1 C 97 % 997,4 hPa 0,0 l/m 0 min 2 min 0 W/m 35,6 km/h (5 Bft)
27.12.2014 07:50 0,3 C -1,1 C 97 % 997,2 hPa 0,2 l/m 0 min 2 min 0 W/m 33,5 km/h (5 Bft)
27.12.2014 07:52 0,2 C -1,1 C 97 % 997,3 hPa 0,0 l/m 0 min 2 min 0 W/m 25,1 km/h (4 Bft)
27.12.2014 07:54 0,2 C -1,1 C 97 % 997,3 hPa 0,0 l/m 0 min 2 min 0 W/m 43,9 km/h (6 Bft)
27.12.2014 07:56 0,3 C -1,1 C 97 % 997,3 hPa 0,0 l/m 0 min 2 min 0 W/m 46,0 km/h (6 Bft)
27.12.2014 07:58 0,2 C -1,1 C 97 % 997,3 hPa 0,0 l/m 0 min 2 min 0 W/m 35,6 km/h (5 Bft)
27.12.2014 08:00 0,2 C -1,1 C 97 % 997,3 hPa 0,0 l/m 0 min 2 min 0 W/m 37,7 km/h (5 Bft)
27.12.2014 08:02 0,2 C -1,1 C 97 % 997,2 hPa 0,0 l/m 0 min 2 min 0 W/m 35,6 km/h (5 Bft)
27.12.2014 08:04 0,2 C -1,1 C 97 % 997,2 hPa 0,0 l/m 0 min 2 min 0 W/m 37,7 km/h (5 Bft)
27.12.2014 08:06 0,2 C -1,1 C 97 % 997,1 hPa 0,0 l/m 0 min 2 min 0 W/m 43,9 km/h (6 Bft)
27.12.2014 08:08 0,2 C -1,1 C 97 % 997,1 hPa 0,0 l/m 0 min 2 min 0 W/m 39,7 km/h (6 Bft)
27.12.2014 08:10 0,2 C -1,1 C 97 % 997,1 hPa 0,0 l/m 0 min 2 min 0 W/m 56,5 km/h (7 Bft)
27.12.2014 08:12 0,2 C -1,1 C 97 % 997,1 hPa 0,0 l/m 0 min 2 min 0 W/m 50,2 km/h (7 Bft)
27.12.2014 08:14 0,3 C -1,1 C 97 % 997,0 hPa 0,0 l/m 0 min 2 min 0 W/m 43,9 km/h (6 Bft)
27.12.2014 08:16 0,3 C -1,1 C 97 % 997,0 hPa 0,0 l/m 0 min 2 min 0 W/m 54,4 km/h (7 Bft)
27.12.2014 08:18 0,3 C -1,1 C 97 % 997,0 hPa 0,2 l/m 0 min 2 min 0 W/m 50,2 km/h (7 Bft)
27.12.2014 08:20 0,3 C -1,1 C 97 % 997,0 hPa 0,0 l/m 0 min 2 min 0 W/m 50,2 km/h (7 Bft)
27.12.2014 08:22 0,3 C -1,1 C 97 % 996,9 hPa 0,0 l/m 0 min 2 min 0 W/m 37,7 km/h (5 Bft)
27.12.2014 08:24 0,3 C -1,1 C 97 % 996,9 hPa 0,0 l/m 0 min 2 min 0 W/m 37,7 km/h (5 Bft)
27.12.2014 08:26 0,3 C -1,1 C 97 % 996,8 hPa 0,0 l/m 0 min 2 min 0 W/m 31,4 km/h (5 Bft)
27.12.2014 08:28 0,2 C -1,1 C 97 % 996,8 hPa 0,0 l/m 0 min 2 min 0 W/m 29,3 km/h (5 Bft)
27.12.2014 08:30 0,2 C -1,1 C 97 % 996,9 hPa 0,0 l/m 0 min 2 min 0 W/m 37,7 km/h (5 Bft)
27.12.2014 08:32 0,2 C -1,1 C 97 % 996,8 hPa 0,0 l/m 0 min 2 min 0 W/m 35,6 km/h (5 Bft)
27.12.2014 08:34 0,2 C -1,1 C 97 % 996,8 hPa 0,0 l/m 0 min 2 min 0 W/m 46,0 km/h (6 Bft)
27.12.2014 08:36 0,2 C -1,1 C 97 % 996,8 hPa 0,0 l/m 0 min 2 min 0 W/m 27,2 km/h (4 Bft)
27.12.2014 08:38 0,2 C -1,1 C 97 % 996,7 hPa 0,0 l/m 0 min 2 min 0 W/m 37,7 km/h (5 Bft)
27.12.2014 08:40 0,2 C -1,1 C 97 % 996,7 hPa 0,2 l/m 0 min 2 min 0 W/m 33,5 km/h (5 Bft)
27.12.2014 08:42 0,2 C -1,1 C 97 % 996,7 hPa 0,0 l/m 0 min 2 min 0 W/m 41,8 km/h (6 Bft)
27.12.2014 08:44 0,2 C -1,1 C 97 % 996,5 hPa 0,0 l/m 0 min 2 min 0 W/m 39,7 km/h (6 Bft)
27.12.2014 08:46 0,2 C -1,1 C 97 % 996,5 hPa 0,0 l/m 0 min 2 min 0 W/m 18,8 km/h (3 Bft)
27.12.2014 08:48 0,2 C -1,1 C 97 % 996,5 hPa 0,0 l/m 0 min 2 min 0 W/m 50,2 km/h (7 Bft)
27.12.2014 08:50 0,2 C -1,1 C 97 % 996,6 hPa 0,0 l/m 0 min 2 min 0 W/m 35,6 km/h (5 Bft)
27.12.2014 08:52 0,2 C -1,1 C 97 % 996,6 hPa 0,0 l/m 0 min 2 min 0 W/m 31,4 km/h (5 Bft)
27.12.2014 08:54 0,2 C -1,1 C 97 % 996,7 hPa 0,0 l/m 0 min 2 min 0 W/m 37,7 km/h (5 Bft)
27.12.2014 08:56 0,2 C -1,1 C 97 % 996,6 hPa 0,0 l/m 0 min 2 min 0 W/m 48,1 km/h (6 Bft)
27.12.2014 08:58 0,2 C -1,1 C 97 % 996,4 hPa 0,0 l/m 0 min 2 min 0 W/m 35,6 km/h (5 Bft)
27.12.2014 09:00 0,2 C -1,1 C 97 % 996,5 hPa 0,0 l/m 0 min 2 min 0 W/m 27,2 km/h (4 Bft)
27.12.2014 09:02 0,2 C -1,1 C 97 % 996,4 hPa 0,2 l/m 0 min 2 min 0 W/m 33,5 km/h (5 Bft)
27.12.2014 09:04 0,2 C -1,1 C 97 % 996,4 hPa 0,0 l/m 0 min 2 min 0 W/m 31,4 km/h (5 Bft)
27.12.2014 09:06 0,2 C -1,1 C 97 % 996,4 hPa 0,0 l/m 0 min 2 min 0 W/m 43,9 km/h (6 Bft)
27.12.2014 09:08 0,2 C -1,1 C 97 % 996,3 hPa 0,0 l/m 0 min 2 min 0 W/m 25,1 km/h (4 Bft)
27.12.2014 09:10 0,2 C -1,1 C 97 % 996,3 hPa 0,0 l/m 0 min 2 min 0 W/m 37,7 km/h (5 Bft)
27.12.2014 09:12 0,2 C -1,1 C 97 % 996,3 hPa 0,0 l/m 0 min 2 min 0 W/m 41,8 km/h (6 Bft)
27.12.2014 09:14 0,2 C -1,1 C 97 % 996,3 hPa 0,0 l/m 0 min 2 min 0 W/m 35,6 km/h (5 Bft)
27.12.2014 09:16 0,2 C -1,1 C 97 % 996,3 hPa 0,2 l/m 0 min 2 min 0 W/m 35,6 km/h (5 Bft)
27.12.2014 09:18 0,2 C -1,1 C 97 % 996,3 hPa 0,0 l/m 0 min 2 min 0 W/m 37,7 km/h (5 Bft)
27.12.2014 09:20 0,2 C -1,1 C 97 % 996,3 hPa 0,0 l/m 0 min 2 min 5 W/m 41,8 km/h (6 Bft)
27.12.2014 09:22 0,2 C -1,1 C 97 % 996,3 hPa 0,0 l/m 0 min 2 min 5 W/m 31,4 km/h (5 Bft)
27.12.2014 09:24 0,2 C -1,1 C 97 % 996,3 hPa 0,0 l/m 0 min 2 min 5 W/m 37,7 km/h (5 Bft)
27.12.2014 09:26 0,2 C -1,1 C 97 % 996,3 hPa 0,0 l/m 0 min 2 min 5 W/m 41,8 km/h (6 Bft)
27.12.2014 09:28 0,2 C -1,1 C 97 % 996,2 hPa 0,0 l/m 0 min 2 min 5 W/m 33,5 km/h (5 Bft)
27.12.2014 09:30 0,2 C -1,1 C 97 % 996,3 hPa 0,0 l/m 0 min 2 min 5 W/m 37,7 km/h (5 Bft)
27.12.2014 09:32 0,2 C -1,1 C 97 % 996,3 hPa 0,0 l/m 0 min 2 min 5 W/m 31,4 km/h (5 Bft)
27.12.2014 09:34 0,2 C -1,1 C 97 % 996,2 hPa 0,0 l/m 0 min 2 min 5 W/m 39,7 km/h (6 Bft)
27.12.2014 09:36 0,2 C -1,1 C 97 % 996,3 hPa 0,0 l/m 0 min 2 min 5 W/m 33,5 km/h (5 Bft)
27.12.2014 09:38 0,2 C -1,1 C 97 % 996,3 hPa 0,0 l/m 0 min 2 min 6 W/m 29,3 km/h (5 Bft)
27.12.2014 09:40 0,2 C -1,1 C 97 % 996,2 hPa 0,2 l/m 0 min 2 min 7 W/m 29,3 km/h (5 Bft)
27.12.2014 09:42 0,2 C -1,1 C 97 % 996,2 hPa 0,0 l/m 0 min 2 min 7 W/m 41,8 km/h (6 Bft)
27.12.2014 09:44 0,2 C -1,1 C 97 % 996,2 hPa 0,0 l/m 0 min 2 min 7 W/m 29,3 km/h (5 Bft)
27.12.2014 09:46 0,2 C -1,1 C 97 % 996,2 hPa 0,0 l/m 0 min 2 min 8 W/m 39,7 km/h (6 Bft)
27.12.2014 09:48 0,2 C -1,1 C 97 % 996,2 hPa 0,0 l/m 0 min 2 min 9 W/m 27,2 km/h (4 Bft)
27.12.2014 09:50 0,3 C -1,1 C 97 % 996,2 hPa 0,0 l/m 0 min 2 min 9 W/m 29,3 km/h (5 Bft)
27.12.2014 09:52 0,3 C -1,1 C 97 % 996,2 hPa 0,2 l/m 0 min 2 min 11 W/m 29,3 km/h (5 Bft)
27.12.2014 09:54 0,3 C -1,1 C 97 % 996,2 hPa 0,0 l/m 0 min 2 min 11 W/m 43,9 km/h (6 Bft)
27.12.2014 09:56 0,3 C -1,1 C 97 % 996,2 hPa 0,0 l/m 0 min 2 min 11 W/m 39,7 km/h (6 Bft)
27.12.2014 09:58 0,3 C -1,1 C 97 % 996,2 hPa 0,0 l/m 0 min 2 min 10 W/m 35,6 km/h (5 Bft)
27.12.2014 10:00 0,3 C -1,1 C 97 % 996,2 hPa 0,0 l/m 0 min 2 min 11 W/m 33,5 km/h (5 Bft)
27.12.2014 10:02 0,3 C -1,1 C 97 % 996,2 hPa 0,0 l/m 0 min 2 min 11 W/m 31,4 km/h (5 Bft)
27.12.2014 10:04 0,3 C -1,1 C 97 % 996,2 hPa 0,0 l/m 0 min 2 min 10 W/m 37,7 km/h (5 Bft)
27.12.2014 10:06 0,3 C -1,1 C 97 % 996,1 hPa 0,0 l/m 0 min 2 min 9 W/m 31,4 km/h (5 Bft)
27.12.2014 10:08 0,3 C -1,1 C 97 % 996,2 hPa 0,0 l/m 0 min 2 min 9 W/m 27,2 km/h (4 Bft)
27.12.2014 10:10 0,3 C -1,1 C 97 % 996,2 hPa 0,0 l/m 0 min 2 min 11 W/m 35,6 km/h (5 Bft)
27.12.2014 10:12 0,3 C -1,1 C 97 % 996,2 hPa 0,2 l/m 0 min 2 min 11 W/m 33,5 km/h (5 Bft)
27.12.2014 10:14 0,3 C -1,1 C 97 % 996,2 hPa 0,0 l/m 0 min 2 min 12 W/m 43,9 km/h (6 Bft)
27.12.2014 10:16 0,3 C -1,1 C 97 % 996,2 hPa 0,0 l/m 0 min 2 min 13 W/m 35,6 km/h (5 Bft)
27.12.2014 10:18 0,3 C -1,1 C 97 % 996,2 hPa 0,0 l/m 0 min 2 min 12 W/m 25,1 km/h (4 Bft)
27.12.2014 10:20 0,3 C -1,1 C 97 % 996,2 hPa 0,0 l/m 0 min 2 min 14 W/m 37,7 km/h (5 Bft)
27.12.2014 10:22 0,2 C -1,1 C 97 % 996,1 hPa 0,0 l/m 0 min 2 min 13 W/m 29,3 km/h (5 Bft)
27.12.2014 10:24 0,3 C -1,1 C 97 % 996,2 hPa 0,0 l/m 0 min 2 min 13 W/m 41,8 km/h (6 Bft)
27.12.2014 10:26 0,3 C -1,1 C 97 % 996,2 hPa 0,2 l/m 0 min 2 min 14 W/m 43,9 km/h (6 Bft)
27.12.2014 10:28 0,2 C -1,1 C 98 % 996,2 hPa 0,0 l/m 0 min 2 min 13 W/m 27,2 km/h (4 Bft)
27.12.2014 10:30 0,3 C -1,1 C 98 % 996,2 hPa 0,0 l/m 0 min 2 min 13 W/m 29,3 km/h (5 Bft)
27.12.2014 10:32 0,2 C -1,1 C 98 % 996,2 hPa 0,0 l/m 0 min 2 min 14 W/m 25,1 km/h (4 Bft)
27.12.2014 10:34 0,3 C -1,1 C 98 % 996,2 hPa 0,0 l/m 0 min 2 min 14 W/m 27,2 km/h (4 Bft)
27.12.2014 10:36 0,2 C -1,1 C 98 % 996,2 hPa 0,0 l/m 0 min 2 min 15 W/m 27,2 km/h (4 Bft)
27.12.2014 10:38 0,2 C -1,1 C 98 % 996,1 hPa 0,0 l/m 0 min 2 min 16 W/m 27,2 km/h (4 Bft)
27.12.2014 10:40 0,2 C -1,1 C 98 % 996,1 hPa 0,0 l/m 0 min 2 min 15 W/m 33,5 km/h (5 Bft)
27.12.2014 10:42 0,2 C -1,1 C 98 % 996,1 hPa 0,0 l/m 0 min 2 min 15 W/m 31,4 km/h (5 Bft)
27.12.2014 10:44 0,2 C -1,1 C 98 % 996,0 hPa 0,0 l/m 0 min 2 min 16 W/m 27,2 km/h (4 Bft)
27.12.2014 10:46 0,2 C -1,1 C 98 % 996,1 hPa 0,0 l/m 0 min 2 min 17 W/m 31,4 km/h (5 Bft)
27.12.2014 10:48 0,2 C -1,1 C 98 % 996,1 hPa 0,0 l/m 0 min 2 min 16 W/m 29,3 km/h (5 Bft)
27.12.2014 10:50 0,2 C -1,1 C 98 % 996,0 hPa 0,0 l/m 0 min 2 min 15 W/m 31,4 km/h (5 Bft)
27.12.2014 10:52 0,2 C -1,1 C 98 % 996,1 hPa 0,2 l/m 0 min 2 min 16 W/m 33,5 km/h (5 Bft)
27.12.2014 10:54 0,3 C -1,1 C 98 % 996,1 hPa 0,0 l/m 0 min 2 min 15 W/m 31,4 km/h (5 Bft)
27.12.2014 10:56 0,3 C -1,1 C 98 % 996,1 hPa 0,0 l/m 0 min 2 min 14 W/m 31,4 km/h (5 Bft)
27.12.2014 10:58 0,3 C -1,1 C 98 % 996,1 hPa 0,0 l/m 0 min 2 min 18 W/m 31,4 km/h (5 Bft)
27.12.2014 11:00 0,3 C -1,1 C 98 % 996,2 hPa 0,0 l/m 0 min 2 min 18 W/m 27,2 km/h (4 Bft)
27.12.2014 11:02 0,3 C -1,1 C 98 % 996,1 hPa 0,0 l/m 0 min 2 min 16 W/m 27,2 km/h (4 Bft)
27.12.2014 11:04 0,3 C -1,1 C 98 % 996,2 hPa 0,0 l/m 0 min 2 min 16 W/m 37,7 km/h (5 Bft)
27.12.2014 11:06 0,3 C -0,6 C 98 % 996,1 hPa 0,2 l/m 0 min 2 min 17 W/m 35,6 km/h (5 Bft)
27.12.2014 11:08 0,3 C -1,1 C 98 % 996,2 hPa 0,0 l/m 0 min 2 min 16 W/m 35,6 km/h (5 Bft)
27.12.2014 11:10 0,3 C -1,1 C 98 % 996,1 hPa 0,0 l/m 0 min 2 min 15 W/m 33,5 km/h (5 Bft)
27.12.2014 11:12 0,3 C -0,6 C 98 % 996,1 hPa 0,0 l/m 0 min 2 min 16 W/m 33,5 km/h (5 Bft)
27.12.2014 11:14 0,3 C -1,1 C 98 % 996,1 hPa 0,0 l/m 0 min 2 min 18 W/m 35,6 km/h (5 Bft)
27.12.2014 11:16 0,3 C -1,1 C 98 % 996,1 hPa 0,0 l/m 0 min 2 min 19 W/m 29,3 km/h (5 Bft)
27.12.2014 11:18 0,3 C -0,6 C 98 % 996,0 hPa 0,0 l/m 0 min 2 min 19 W/m 35,6 km/h (5 Bft)
27.12.2014 11:20 0,3 C -0,6 C 98 % 996,1 hPa 0,0 l/m 0 min 2 min 20 W/m 20,9 km/h (4 Bft)
27.12.2014 11:22 0,3 C -0,6 C 98 % 996,1 hPa 0,0 l/m 0 min 2 min 19 W/m 31,4 km/h (5 Bft)
27.12.2014 11:24 0,3 C -0,6 C 98 % 996,1 hPa 0,0 l/m 0 min 2 min 21 W/m 29,3 km/h (5 Bft)
27.12.2014 11:26 0,3 C -0,6 C 98 % 996,1 hPa 0,0 l/m 0 min 2 min 22 W/m 25,1 km/h (4 Bft)
27.12.2014 11:28 0,3 C -0,6 C 98 % 996,1 hPa 0,0 l/m 0 min 2 min 24 W/m 35,6 km/h (5 Bft)
27.12.2014 11:30 0,3 C -0,6 C 98 % 996,1 hPa 0,0 l/m 0 min 2 min 25 W/m 20,9 km/h (4 Bft)
27.12.2014 11:32 0,3 C -0,6 C 98 % 996,1 hPa 0,2 l/m 0 min 2 min 24 W/m 27,2 km/h (4 Bft)
27.12.2014 11:34 0,3 C -0,6 C 98 % 996,1 hPa 0,0 l/m 0 min 2 min 26 W/m 27,2 km/h (4 Bft)
27.12.2014 11:36 0,3 C -0,6 C 98 % 996,0 hPa 0,0 l/m 0 min 2 min 26 W/m 29,3 km/h (5 Bft)
27.12.2014 11:38 0,3 C -0,6 C 98 % 996,0 hPa 0,0 l/m 0 min 2 min 25 W/m 27,2 km/h (4 Bft)
27.12.2014 11:40 0,3 C -0,6 C 98 % 996,0 hPa 0,2 l/m 0 min 2 min 28 W/m 29,3 km/h (5 Bft)
27.12.2014 11:42 0,3 C -0,6 C 98 % 996,0 hPa 0,0 l/m 0 min 2 min 30 W/m 35,6 km/h (5 Bft)
27.12.2014 11:44 0,4 C -0,6 C 98 % 995,9 hPa 0,0 l/m 0 min 2 min 29 W/m 31,4 km/h (5 Bft)
27.12.2014 11:46 0,4 C -0,6 C 98 % 995,9 hPa 0,0 l/m 0 min 2 min 32 W/m 31,4 km/h (5 Bft)
27.12.2014 11:48 0,4 C -0,6 C 98 % 995,9 hPa 0,0 l/m 0 min 2 min 32 W/m 25,1 km/h (4 Bft)
27.12.2014 11:50 0,4 C -0,6 C 98 % 995,8 hPa 0,0 l/m 0 min 2 min 34 W/m 27,2 km/h (4 Bft)
27.12.2014 11:52 0,4 C -0,6 C 98 % 995,9 hPa 0,0 l/m 0 min 2 min 36 W/m 31,4 km/h (5 Bft)
27.12.2014 11:54 0,4 C -0,6 C 98 % 995,9 hPa 0,0 l/m 0 min 2 min 39 W/m 35,6 km/h (5 Bft)
27.12.2014 11:56 0,4 C -0,6 C 98 % 996,0 hPa 0,2 l/m 0 min 2 min 41 W/m 27,2 km/h (4 Bft)
27.12.2014 11:58 0,4 C -0,6 C 98 % 996,0 hPa 0,0 l/m 0 min 2 min 44 W/m 29,3 km/h (5 Bft)
27.12.2014 12:00 0,4 C -0,6 C 98 % 995,9 hPa 0,0 l/m 0 min 2 min 41 W/m 27,2 km/h (4 Bft)
27.12.2014 12:02 0,4 C -0,6 C 98 % 995,9 hPa 0,0 l/m 0 min 2 min 44 W/m 23,0 km/h (4 Bft)
27.12.2014 12:05 0,4 C -0,6 C 98 % 995,9 hPa 0,2 l/m 0 min 2 min 44 W/m 27,2 km/h (4 Bft)
27.12.2014 12:08 0,4 C -0,6 C 98 % 995,9 hPa 0,2 l/m 0 min 2 min 43 W/m 27,2 km/h (4 Bft)
27.12.2014 12:10 0,4 C -0,6 C 98 % 995,9 hPa 0,0 l/m 0 min 2 min 42 W/m 23,0 km/h (4 Bft)
27.12.2014 12:12 0,4 C -0,6 C 98 % 995,9 hPa 0,0 l/m 0 min 2 min 41 W/m 29,3 km/h (5 Bft)
27.12.2014 12:14 0,4 C -0,6 C 98 % 995,9 hPa 0,0 l/m 0 min 2 min 39 W/m 27,2 km/h (4 Bft)
27.12.2014 12:16 0,5 C -0,6 C 98 % 996,0 hPa 0,0 l/m 0 min 2 min 37 W/m 27,2 km/h (4 Bft)
27.12.2014 12:18 0,4 C -0,6 C 98 % 995,9 hPa 0,0 l/m 0 min 2 min 34 W/m 31,4 km/h (5 Bft)
27.12.2014 12:20 0,4 C -0,6 C 98 % 995,9 hPa 0,0 l/m 0 min 2 min 33 W/m 23,0 km/h (4 Bft)
27.12.2014 12:22 0,5 C -0,6 C 98 % 995,9 hPa 0,0 l/m 0 min 2 min 33 W/m 33,5 km/h (5 Bft)
27.12.2014 12:24 0,5 C -0,6 C 98 % 995,9 hPa 0,0 l/m 0 min 2 min 33 W/m 35,6 km/h (5 Bft)
27.12.2014 12:26 0,5 C -0,6 C 98 % 995,8 hPa 0,2 l/m 0 min 2 min 34 W/m 25,1 km/h (4 Bft)
27.12.2014 12:28 0,5 C -0,6 C 98 % 995,8 hPa 0,0 l/m 0 min 2 min 35 W/m 23,0 km/h (4 Bft)
27.12.2014 12:30 0,5 C -0,6 C 98 % 995,8 hPa 0,0 l/m 0 min 2 min 34 W/m 27,2 km/h (4 Bft)
27.12.2014 12:32 0,5 C -0,6 C 98 % 995,8 hPa 0,0 l/m 0 min 2 min 39 W/m 27,2 km/h (4 Bft)
27.12.2014 12:34 0,4 C -0,6 C 98 % 995,8 hPa 0,0 l/m 0 min 2 min 40 W/m 18,8 km/h (3 Bft)
27.12.2014 12:36 0,5 C -0,6 C 98 % 995,8 hPa 0,0 l/m 0 min 2 min 42 W/m 29,3 km/h (5 Bft)
27.12.2014 12:38 0,5 C -0,6 C 98 % 995,8 hPa 0,0 l/m 0 min 2 min 46 W/m 20,9 km/h (4 Bft)
27.12.2014 12:40 0,5 C -0,6 C 98 % 995,8 hPa 0,2 l/m 0 min 2 min 44 W/m 27,2 km/h (4 Bft)
27.12.2014 12:42 0,5 C -0,6 C 98 % 995,7 hPa 0,0 l/m 0 min 2 min 44 W/m 20,9 km/h (4 Bft)
27.12.2014 12:44 0,5 C -0,6 C 98 % 995,8 hPa 0,0 l/m 0 min 2 min 43 W/m 25,1 km/h (4 Bft)
27.12.2014 12:46 0,5 C -0,6 C 98 % 995,7 hPa 0,0 l/m 0 min 2 min 43 W/m 18,8 km/h (3 Bft)
27.12.2014 12:48 0,5 C -0,6 C 98 % 995,8 hPa 0,2 l/m 0 min 2 min 39 W/m 27,2 km/h (4 Bft)
27.12.2014 12:50 0,5 C -1,1 C 98 % 995,8 hPa 0,0 l/m 0 min 2 min 38 W/m 23,0 km/h (4 Bft)
27.12.2014 12:52 0,5 C -1,1 C 98 % 995,8 hPa 0,0 l/m 0 min 2 min 38 W/m 35,6 km/h (5 Bft)
27.12.2014 12:54 0,5 C -1,1 C 98 % 995,8 hPa 0,0 l/m 0 min 2 min 36 W/m 27,2 km/h (4 Bft)
27.12.2014 12:56 0,5 C -1,1 C 98 % 995,8 hPa 0,0 l/m 0 min 2 min 32 W/m 20,9 km/h (4 Bft)
27.12.2014 12:58 0,4 C -1,1 C 98 % 995,8 hPa 0,0 l/m 0 min 2 min 32 W/m 20,9 km/h (4 Bft)
27.12.2014 13:00 0,5 C -1,1 C 98 % 995,8 hPa 0,0 l/m 0 min 2 min 32 W/m 20,9 km/h (4 Bft)
27.12.2014 13:02 0,4 C -1,1 C 98 % 995,8 hPa 0,0 l/m 0 min 2 min 31 W/m 25,1 km/h (4 Bft)
27.12.2014 13:04 0,4 C -1,1 C 98 % 995,9 hPa 0,2 l/m 0 min 2 min 31 W/m 23,0 km/h (4 Bft)
27.12.2014 13:06 0,4 C -1,1 C 98 % 995,9 hPa 0,0 l/m 0 min 2 min 32 W/m 31,4 km/h (5 Bft)
27.12.2014 13:08 0,4 C -1,1 C 98 % 995,9 hPa 0,0 l/m 0 min 2 min 30 W/m 25,1 km/h (4 Bft)
27.12.2014 13:10 0,4 C -1,1 C 98 % 995,9 hPa 0,0 l/m 0 min 2 min 33 W/m 23,0 km/h (4 Bft)
27.12.2014 13:12 0,4 C -1,1 C 98 % 995,9 hPa 0,2 l/m 0 min 2 min 33 W/m 27,2 km/h (4 Bft)
27.12.2014 13:14 0,4 C -1,1 C 98 % 995,9 hPa 0,0 l/m 0 min 2 min 32 W/m 23,0 km/h (4 Bft)
27.12.2014 13:16 0,4 C -1,1 C 98 % 995,8 hPa 0,0 l/m 0 min 2 min 33 W/m 20,9 km/h (4 Bft)
27.12.2014 13:18 0,4 C -1,1 C 98 % 995,8 hPa 0,0 l/m 0 min 2 min 36 W/m 14,6 km/h (3 Bft)
27.12.2014 13:20 0,4 C -1,1 C 98 % 995,9 hPa 0,0 l/m 0 min 2 min 34 W/m 23,0 km/h (4 Bft)
27.12.2014 13:22 0,4 C -1,1 C 98 % 995,8 hPa 0,0 l/m 0 min 2 min 34 W/m 23,0 km/h (4 Bft)
27.12.2014 13:24 0,4 C -1,1 C 98 % 995,8 hPa 0,0 l/m 0 min 2 min 34 W/m 20,9 km/h (4 Bft)
27.12.2014 13:26 0,4 C -1,1 C 98 % 995,9 hPa 0,0 l/m 0 min 2 min 34 W/m 23,0 km/h (4 Bft)
27.12.2014 13:28 0,3 C -1,1 C 98 % 995,8 hPa 0,0 l/m 0 min 2 min 35 W/m 20,9 km/h (4 Bft)
27.12.2014 13:30 0,3 C -1,1 C 98 % 995,8 hPa 0,0 l/m 0 min 2 min 38 W/m 18,8 km/h (3 Bft)
27.12.2014 13:32 0,3 C -1,1 C 98 % 995,8 hPa 0,0 l/m 0 min 2 min 38 W/m 16,7 km/h (3 Bft)
27.12.2014 13:34 0,3 C -1,1 C 98 % 995,8 hPa 0,2 l/m 0 min 2 min 40 W/m 18,8 km/h (3 Bft)
27.12.2014 13:36 0,3 C -1,1 C 98 % 995,8 hPa 0,0 l/m 0 min 2 min 41 W/m 16,7 km/h (3 Bft)
27.12.2014 13:38 0,3 C -1,1 C 98 % 995,8 hPa 0,0 l/m 0 min 2 min 40 W/m 16,7 km/h (3 Bft)
27.12.2014 13:40 0,3 C -1,1 C 98 % 995,8 hPa 0,0 l/m 0 min 2 min 40 W/m 23,0 km/h (4 Bft)
27.12.2014 13:42 0,3 C -1,1 C 98 % 995,8 hPa 0,0 l/m 0 min 2 min 38 W/m 18,8 km/h (3 Bft)
27.12.2014 13:44 0,3 C -1,1 C 98 % 995,8 hPa 0,0 l/m 0 min 2 min 39 W/m 14,6 km/h (3 Bft)
27.12.2014 13:46 0,3 C -1,1 C 98 % 995,8 hPa 0,2 l/m 0 min 2 min 36 W/m 23,0 km/h (4 Bft)
27.12.2014 13:48 0,3 C -1,1 C 98 % 995,9 hPa 0,0 l/m 0 min 2 min 34 W/m 18,8 km/h (3 Bft)
27.12.2014 13:50 0,3 C -1,1 C 98 % 995,8 hPa 0,0 l/m 0 min 2 min 40 W/m 23,0 km/h (4 Bft)
27.12.2014 13:52 0,3 C -1,1 C 98 % 995,8 hPa 0,0 l/m 0 min 2 min 46 W/m 14,6 km/h (3 Bft)
27.12.2014 13:54 0,3 C -1,1 C 98 % 995,8 hPa 0,0 l/m 0 min 2 min 45 W/m 16,7 km/h (3 Bft)
27.12.2014 13:56 0,3 C -1,1 C 98 % 995,8 hPa 0,0 l/m 0 min 2 min 45 W/m 20,9 km/h (4 Bft)
27.12.2014 13:58 0,3 C -1,1 C 98 % 995,8 hPa 0,0 l/m 0 min 2 min 50 W/m 18,8 km/h (3 Bft)
27.12.2014 14:00 0,3 C -1,1 C 98 % 995,8 hPa 0,0 l/m 0 min 2 min 51 W/m 12,6 km/h (3 Bft)
27.12.2014 14:02 0,3 C -1,1 C 98 % 995,9 hPa 0,0 l/m 0 min 2 min 51 W/m 20,9 km/h (4 Bft)
27.12.2014 14:04 0,3 C -1,1 C 98 % 995,9 hPa 0,0 l/m 0 min 2 min 51 W/m 16,7 km/h (3 Bft)
27.12.2014 14:06 0,3 C -1,1 C 98 % 995,9 hPa 0,0 l/m 0 min 2 min 45 W/m 18,8 km/h (3 Bft)
27.12.2014 14:08 0,3 C -1,1 C 98 % 995,9 hPa 0,0 l/m 0 min 2 min 47 W/m 20,9 km/h (4 Bft)
27.12.2014 14:10 0,3 C -1,1 C 98 % 995,9 hPa 0,2 l/m 0 min 2 min 45 W/m 20,9 km/h (4 Bft)
27.12.2014 14:12 0,3 C -1,1 C 98 % 995,9 hPa 0,0 l/m 0 min 2 min 40 W/m 25,1 km/h (4 Bft)
27.12.2014 14:14 0,3 C -1,1 C 98 % 995,9 hPa 0,0 l/m 0 min 2 min 40 W/m 18,8 km/h (3 Bft)
27.12.2014 14:16 0,3 C -1,1 C 98 % 995,9 hPa 0,0 l/m 0 min 2 min 33 W/m 18,8 km/h (3 Bft)
27.12.2014 14:18 0,3 C -1,1 C 98 % 995,9 hPa 0,0 l/m 0 min 2 min 30 W/m 16,7 km/h (3 Bft)
27.12.2014 14:20 0,3 C -1,1 C 98 % 995,9 hPa 0,0 l/m 0 min 2 min 27 W/m 18,8 km/h (3 Bft)
27.12.2014 14:22 0,3 C -1,1 C 98 % 996,0 hPa 0,0 l/m 0 min 2 min 25 W/m 18,8 km/h (3 Bft)
27.12.2014 14:24 0,3 C -1,1 C 98 % 996,0 hPa 0,0 l/m 0 min 2 min 23 W/m 20,9 km/h (4 Bft)
27.12.2014 14:26 0,3 C -1,1 C 98 % 996,0 hPa 0,2 l/m 0 min 2 min 22 W/m 18,8 km/h (3 Bft)
27.12.2014 14:28 0,3 C -1,1 C 98 % 996,0 hPa 0,0 l/m 0 min 2 min 20 W/m 14,6 km/h (3 Bft)
27.12.2014 14:30 0,3 C -1,1 C 98 % 996,0 hPa 0,0 l/m 0 min 2 min 20 W/m 20,9 km/h (4 Bft)
27.12.2014 14:32 0,3 C -1,1 C 98 % 996,0 hPa 0,0 l/m 0 min 2 min 18 W/m 18,8 km/h (3 Bft)
27.12.2014 14:34 0,3 C -1,1 C 98 % 996,0 hPa 0,0 l/m 0 min 2 min 16 W/m 18,8 km/h (3 Bft)
27.12.2014 14:36 0,3 C -1,1 C 98 % 996,1 hPa 0,0 l/m 0 min 2 min 16 W/m 23,0 km/h (4 Bft)
27.12.2014 14:38 0,3 C -1,1 C 98 % 996,1 hPa 0,0 l/m 0 min 2 min 15 W/m 14,6 km/h (3 Bft)
27.12.2014 14:40 0,3 C -1,1 C 98 % 996,1 hPa 0,0 l/m 0 min 2 min 14 W/m 20,9 km/h (4 Bft)
27.12.2014 14:42 0,3 C -1,1 C 98 % 996,1 hPa 0,0 l/m 0 min 2 min 15 W/m 29,3 km/h (5 Bft)
27.12.2014 14:44 0,2 C -1,1 C 98 % 996,2 hPa 0,0 l/m 0 min 2 min 15 W/m 16,7 km/h (3 Bft)
27.12.2014 14:46 0,2 C -1,1 C 98 % 996,1 hPa 0,0 l/m 0 min 2 min 12 W/m 14,6 km/h (3 Bft)
27.12.2014 14:48 0,2 C -1,1 C 98 % 996,1 hPa 0,0 l/m 0 min 2 min 13 W/m 29,3 km/h (5 Bft)
27.12.2014 14:50 0,2 C -1,1 C 98 % 996,2 hPa 0,0 l/m 0 min 2 min 14 W/m 12,6 km/h (3 Bft)
27.12.2014 14:52 0,2 C -1,1 C 98 % 996,2 hPa 0,2 l/m 0 min 2 min 15 W/m 23,0 km/h (4 Bft)
27.12.2014 14:54 0,2 C -1,1 C 98 % 996,2 hPa 0,0 l/m 0 min 2 min 14 W/m 18,8 km/h (3 Bft)
27.12.2014 14:56 0,2 C -1,1 C 98 % 996,2 hPa 0,0 l/m 0 min 2 min 14 W/m 16,7 km/h (3 Bft)
27.12.2014 14:58 0,2 C -1,1 C 98 % 996,2 hPa 0,0 l/m 0 min 2 min 14 W/m 18,8 km/h (3 Bft)
27.12.2014 15:00 0,2 C -1,1 C 98 % 996,2 hPa 0,0 l/m 0 min 2 min 15 W/m 23,0 km/h (4 Bft)
27.12.2014 15:02 0,2 C -1,1 C 98 % 996,2 hPa 0,0 l/m 0 min 2 min 15 W/m 20,9 km/h (4 Bft)
27.12.2014 15:04 0,2 C -1,1 C 98 % 996,2 hPa 0,0 l/m 0 min 2 min 14 W/m 18,8 km/h (3 Bft)
27.12.2014 15:06 0,2 C -1,1 C 98 % 996,2 hPa 0,0 l/m 0 min 2 min 16 W/m 16,7 km/h (3 Bft)
27.12.2014 15:08 0,2 C -1,1 C 98 % 996,2 hPa 0,0 l/m 0 min 2 min 16 W/m 25,1 km/h (4 Bft)
27.12.2014 15:10 0,2 C -0,6 C 98 % 996,3 hPa 0,0 l/m 0 min 2 min 16 W/m 18,8 km/h (3 Bft)
27.12.2014 15:12 0,2 C -0,6 C 98 % 996,3 hPa 0,2 l/m 0 min 2 min 16 W/m 16,7 km/h (3 Bft)
27.12.2014 15:14 0,2 C -0,6 C 98 % 996,3 hPa 0,0 l/m 0 min 2 min 12 W/m 20,9 km/h (4 Bft)
27.12.2014 15:16 0,2 C -0,6 C 98 % 996,3 hPa 0,0 l/m 0 min 2 min 12 W/m 18,8 km/h (3 Bft)
27.12.2014 15:18 0,3 C -0,6 C 98 % 996,2 hPa 0,0 l/m 0 min 2 min 12 W/m 23,0 km/h (4 Bft)
27.12.2014 15:20 0,3 C -0,6 C 98 % 996,3 hPa 0,0 l/m 0 min 2 min 13 W/m 27,2 km/h (4 Bft)
27.12.2014 15:22 0,3 C -0,6 C 98 % 996,4 hPa 0,0 l/m 0 min 2 min 12 W/m 23,0 km/h (4 Bft)
27.12.2014 15:24 0,3 C -0,6 C 98 % 996,4 hPa 0,0 l/m 0 min 2 min 12 W/m 18,8 km/h (3 Bft)
27.12.2014 15:26 0,3 C -0,6 C 98 % 996,4 hPa 0,0 l/m 0 min 2 min 11 W/m 20,9 km/h (4 Bft)
27.12.2014 15:28 0,3 C -0,6 C 98 % 996,5 hPa 0,0 l/m 0 min 2 min 11 W/m 16,7 km/h (3 Bft)
27.12.2014 15:30 0,3 C -0,6 C 98 % 996,6 hPa 0,0 l/m 0 min 2 min 11 W/m 27,2 km/h (4 Bft)
27.12.2014 15:32 0,3 C -0,6 C 98 % 996,6 hPa 0,0 l/m 0 min 2 min 13 W/m 20,9 km/h (4 Bft)
27.12.2014 15:34 0,3 C -0,6 C 98 % 996,6 hPa 0,0 l/m 0 min 2 min 12 W/m 20,9 km/h (4 Bft)
27.12.2014 15:36 0,3 C -0,6 C 98 % 996,7 hPa 0,0 l/m 0 min 2 min 13 W/m 27,2 km/h (4 Bft)
27.12.2014 15:38 0,3 C -0,6 C 98 % 996,7 hPa 0,0 l/m 0 min 2 min 13 W/m 23,0 km/h (4 Bft)
27.12.2014 15:40 0,3 C -0,6 C 98 % 996,7 hPa 0,0 l/m 0 min 2 min 12 W/m 16,7 km/h (3 Bft)
27.12.2014 15:42 0,3 C -0,6 C 98 % 996,7 hPa 0,0 l/m 0 min 2 min 13 W/m 20,9 km/h (4 Bft)
27.12.2014 15:44 0,4 C -0,6 C 98 % 996,7 hPa 0,0 l/m 0 min 2 min 12 W/m 20,9 km/h (4 Bft)
27.12.2014 15:46 0,4 C -0,6 C 98 % 996,7 hPa 0,2 l/m 0 min 2 min 12 W/m 20,9 km/h (4 Bft)
27.12.2014 15:48 0,4 C -0,6 C 98 % 996,7 hPa 0,0 l/m 0 min 2 min 12 W/m 29,3 km/h (5 Bft)
27.12.2014 15:50 0,4 C -0,6 C 98 % 996,7 hPa 0,0 l/m 0 min 2 min 12 W/m 29,3 km/h (5 Bft)
27.12.2014 15:52 0,4 C -0,6 C 98 % 996,7 hPa 0,0 l/m 0 min 2 min 12 W/m 23,0 km/h (4 Bft)
27.12.2014 15:54 0,4 C -0,6 C 98 % 996,8 hPa 0,0 l/m 0 min 2 min 13 W/m 27,2 km/h (4 Bft)
27.12.2014 15:56 0,4 C -0,6 C 98 % 996,7 hPa 0,0 l/m 0 min 2 min 12 W/m 33,5 km/h (5 Bft)
27.12.2014 15:58 0,4 C -0,6 C 98 % 996,8 hPa 0,0 l/m 0 min 2 min 11 W/m 16,7 km/h (3 Bft)
27.12.2014 16:00 0,4 C -0,6 C 98 % 996,7 hPa 0,0 l/m 0 min 2 min 11 W/m 33,5 km/h (5 Bft)
27.12.2014 16:02 0,4 C -0,6 C 98 % 996,9 hPa 0,0 l/m 0 min 2 min 9 W/m 23,0 km/h (4 Bft)
27.12.2014 16:04 0,4 C -0,6 C 98 % 996,9 hPa 0,2 l/m 0 min 2 min 7 W/m 27,2 km/h (4 Bft)
27.12.2014 16:06 0,4 C -0,6 C 98 % 996,9 hPa 0,0 l/m 0 min 2 min 7 W/m 27,2 km/h (4 Bft)
27.12.2014 16:08 0,4 C -0,6 C 98 % 997,0 hPa 0,0 l/m 0 min 2 min 5 W/m 27,2 km/h (4 Bft)
27.12.2014 16:10 0,4 C -0,6 C 98 % 997,0 hPa 0,0 l/m 0 min 2 min 5 W/m 31,4 km/h (5 Bft)
27.12.2014 16:12 0,4 C -0,6 C 98 % 997,1 hPa 0,0 l/m 0 min 2 min 5 W/m 31,4 km/h (5 Bft)
27.12.2014 16:14 0,5 C -0,6 C 98 % 997,1 hPa 0,0 l/m 0 min 2 min 5 W/m 33,5 km/h (5 Bft)
27.12.2014 16:16 0,5 C -0,6 C 98 % 997,1 hPa 0,0 l/m 0 min 2 min 3 W/m 29,3 km/h (5 Bft)
27.12.2014 16:18 0,5 C -0,6 C 98 % 997,1 hPa 0,0 l/m 0 min 2 min 0 W/m 20,9 km/h (4 Bft)
27.12.2014 16:20 0,5 C -0,6 C 98 % 997,1 hPa 0,0 l/m 0 min 2 min 0 W/m 35,6 km/h (5 Bft)
27.12.2014 16:22 0,5 C -0,6 C 98 % 997,2 hPa 0,0 l/m 0 min 2 min 0 W/m 29,3 km/h (5 Bft)
27.12.2014 16:24 0,5 C -0,6 C 98 % 997,2 hPa 0,0 l/m 0 min 2 min 0 W/m 25,1 km/h (4 Bft)
27.12.2014 16:26 0,5 C -0,6 C 98 % 997,2 hPa 0,0 l/m 0 min 2 min 0 W/m 27,2 km/h (4 Bft)
27.12.2014 16:28 0,5 C -0,6 C 98 % 997,2 hPa 0,0 l/m 0 min 2 min 0 W/m 27,2 km/h (4 Bft)
27.12.2014 16:30 0,5 C -0,6 C 98 % 997,3 hPa 0,0 l/m 0 min 2 min 0 W/m 27,2 km/h (4 Bft)
27.12.2014 16:32 0,5 C -0,6 C 98 % 997,3 hPa 0,0 l/m 0 min 2 min 0 W/m 20,9 km/h (4 Bft)
27.12.2014 16:34 0,5 C -0,6 C 98 % 997,4 hPa 0,0 l/m 0 min 2 min 0 W/m 18,8 km/h (3 Bft)
27.12.2014 16:36 0,5 C -0,6 C 98 % 997,4 hPa 0,0 l/m 0 min 2 min 0 W/m 27,2 km/h (4 Bft)
27.12.2014 16:38 0,5 C -0,6 C 98 % 997,5 hPa 0,0 l/m 0 min 2 min 0 W/m 23,0 km/h (4 Bft)
27.12.2014 16:40 0,5 C -0,6 C 98 % 997,5 hPa 0,0 l/m 0 min 2 min 0 W/m 25,1 km/h (4 Bft)
27.12.2014 16:42 0,5 C -0,6 C 98 % 997,5 hPa 0,0 l/m 0 min 2 min 0 W/m 25,1 km/h (4 Bft)
27.12.2014 16:44 0,5 C -0,6 C 98 % 997,5 hPa 0,2 l/m 0 min 2 min 0 W/m 31,4 km/h (5 Bft)
27.12.2014 16:46 0,5 C -0,6 C 98 % 997,5 hPa 0,0 l/m 0 min 2 min 0 W/m 25,1 km/h (4 Bft)
27.12.2014 16:48 0,5 C -0,6 C 98 % 997,6 hPa 0,0 l/m 0 min 2 min 0 W/m 29,3 km/h (5 Bft)
27.12.2014 16:50 0,5 C -0,6 C 98 % 997,6 hPa 0,0 l/m 0 min 2 min 0 W/m 25,1 km/h (4 Bft)
27.12.2014 16:52 0,5 C -0,6 C 98 % 997,6 hPa 0,0 l/m 0 min 2 min 0 W/m 29,3 km/h (5 Bft)
27.12.2014 16:54 0,5 C -0,6 C 98 % 997,6 hPa 0,0 l/m 0 min 2 min 0 W/m 23,0 km/h (4 Bft)
27.12.2014 16:56 0,5 C -0,6 C 98 % 997,7 hPa 0,0 l/m 0 min 2 min 0 W/m 29,3 km/h (5 Bft)
27.12.2014 16:58 0,5 C -0,6 C 98 % 997,7 hPa 0,0 l/m 0 min 2 min 0 W/m 18,8 km/h (3 Bft)
27.12.2014 17:00 0,5 C -0,6 C 98 % 997,8 hPa 0,0 l/m 0 min 2 min 0 W/m 23,0 km/h (4 Bft)
27.12.2014 17:02 0,5 C -0,6 C 98 % 997,8 hPa 0,0 l/m 0 min 2 min 0 W/m 25,1 km/h (4 Bft)
27.12.2014 17:04 0,4 C -0,6 C 98 % 997,8 hPa 0,0 l/m 0 min 2 min 0 W/m 25,1 km/h (4 Bft)
27.12.2014 17:06 0,5 C -0,6 C 98 % 997,9 hPa 0,0 l/m 0 min 2 min 0 W/m 29,3 km/h (5 Bft)
27.12.2014 17:08 0,4 C -0,6 C 98 % 997,9 hPa 0,0 l/m 0 min 2 min 0 W/m 33,5 km/h (5 Bft)
27.12.2014 17:10 0,4 C -0,6 C 98 % 997,9 hPa 0,2 l/m 0 min 2 min 0 W/m 29,3 km/h (5 Bft)
27.12.2014 17:12 0,4 C -0,6 C 98 % 998,0 hPa 0,0 l/m 0 min 2 min 0 W/m 29,3 km/h (5 Bft)
27.12.2014 17:14 0,4 C -0,6 C 98 % 998,1 hPa 0,0 l/m 0 min 2 min 0 W/m 27,2 km/h (4 Bft)
27.12.2014 17:16 0,4 C -0,6 C 98 % 998,1 hPa 0,0 l/m 0 min 2 min 0 W/m 27,2 km/h (4 Bft)
27.12.2014 17:18 0,4 C -0,6 C 98 % 998,1 hPa 0,0 l/m 0 min 2 min 0 W/m 31,4 km/h (5 Bft)
27.12.2014 17:20 0,4 C -0,6 C 98 % 998,2 hPa 0,0 l/m 0 min 2 min 0 W/m 27,2 km/h (4 Bft)
27.12.2014 17:22 0,4 C -0,6 C 98 % 998,3 hPa 0,0 l/m 0 min 2 min 0 W/m 29,3 km/h (5 Bft)
27.12.2014 17:24 0,4 C -0,6 C 98 % 998,3 hPa 0,0 l/m 0 min 2 min 0 W/m 27,2 km/h (4 Bft)
27.12.2014 17:26 0,4 C -0,6 C 98 % 998,4 hPa 0,0 l/m 0 min 2 min 0 W/m 29,3 km/h (5 Bft)
27.12.2014 17:28 0,4 C -0,6 C 98 % 998,4 hPa 0,0 l/m 0 min 2 min 0 W/m 23,0 km/h (4 Bft)
27.12.2014 17:30 0,4 C -0,6 C 98 % 998,4 hPa 0,0 l/m 0 min 2 min 0 W/m 23,0 km/h (4 Bft)
27.12.2014 17:32 0,4 C -0,6 C 98 % 998,5 hPa 0,0 l/m 0 min 2 min 0 W/m 23,0 km/h (4 Bft)
27.12.2014 17:34 0,4 C -0,6 C 98 % 998,5 hPa 0,0 l/m 0 min 2 min 0 W/m 18,8 km/h (3 Bft)
27.12.2014 17:36 0,4 C -0,6 C 98 % 998,5 hPa 0,0 l/m 0 min 2 min 0 W/m 35,6 km/h (5 Bft)
27.12.2014 17:38 0,4 C -0,6 C 98 % 998,5 hPa 0,0 l/m 0 min 2 min 0 W/m 29,3 km/h (5 Bft)
27.12.2014 17:40 0,4 C -0,6 C 98 % 998,6 hPa 0,0 l/m 0 min 2 min 0 W/m 25,1 km/h (4 Bft)
27.12.2014 17:42 0,4 C -0,6 C 98 % 998,6 hPa 0,0 l/m 0 min 2 min 0 W/m 29,3 km/h (5 Bft)
27.12.2014 17:44 0,4 C -0,6 C 98 % 998,7 hPa 0,0 l/m 0 min 0 min 0 W/m 29,3 km/h (5 Bft)
27.12.2014 17:46 0,4 C -0,6 C 98 % 998,7 hPa 0,0 l/m 0 min 0 min 0 W/m 31,4 km/h (5 Bft)
27.12.2014 17:48 0,4 C -0,6 C 98 % 998,6 hPa 0,0 l/m 0 min 0 min 0 W/m 33,5 km/h (5 Bft)
27.12.2014 17:50 0,4 C -0,6 C 98 % 998,7 hPa 0,0 l/m 0 min 0 min 0 W/m 25,1 km/h (4 Bft)
27.12.2014 17:52 0,3 C -0,6 C 98 % 998,7 hPa 0,0 l/m 0 min 2 min 0 W/m 29,3 km/h (5 Bft)
27.12.2014 17:54 0,3 C -0,6 C 98 % 998,8 hPa 0,0 l/m 0 min 0 min 0 W/m 35,6 km/h (5 Bft)
27.12.2014 17:56 0,3 C -0,6 C 98 % 998,8 hPa 0,0 l/m 0 min 0 min 0 W/m 33,5 km/h (5 Bft)
27.12.2014 17:58 0,3 C -0,6 C 98 % 998,8 hPa 0,0 l/m 0 min 0 min 0 W/m 37,7 km/h (5 Bft)
27.12.2014 18:00 0,3 C -0,6 C 98 % 998,8 hPa 0,0 l/m 0 min 0 min 0 W/m 29,3 km/h (5 Bft)
27.12.2014 18:02 0,3 C -0,6 C 98 % 998,9 hPa 0,0 l/m 0 min 0 min 0 W/m 33,5 km/h (5 Bft)
27.12.2014 18:05 0,3 C -0,6 C 98 % 999,0 hPa 0,0 l/m 0 min 0 min 0 W/m 29,3 km/h (5 Bft)
27.12.2014 18:08 0,3 C -0,6 C 98 % 999,1 hPa 0,0 l/m 0 min 0 min 0 W/m 37,7 km/h (5 Bft)
27.12.2014 18:10 0,3 C -0,6 C 98 % 999,2 hPa 0,0 l/m 0 min 2 min 0 W/m 31,4 km/h (5 Bft)
27.12.2014 18:12 0,3 C -0,6 C 98 % 999,2 hPa 0,0 l/m 0 min 0 min 0 W/m 31,4 km/h (5 Bft)
27.12.2014 18:14 0,3 C -0,6 C 98 % 999,3 hPa 0,0 l/m 0 min 0 min 0 W/m 27,2 km/h (4 Bft)
27.12.2014 18:16 0,3 C -0,6 C 98 % 999,2 hPa 0,0 l/m 0 min 0 min 0 W/m 31,4 km/h (5 Bft)
27.12.2014 18:18 0,3 C -0,6 C 98 % 999,3 hPa 0,0 l/m 0 min 2 min 0 W/m 39,7 km/h (6 Bft)
27.12.2014 18:20 0,3 C -0,6 C 98 % 999,3 hPa 0,0 l/m 0 min 2 min 0 W/m 35,6 km/h (5 Bft)
27.12.2014 18:22 0,2 C -0,6 C 98 % 999,3 hPa 0,0 l/m 0 min 2 min 0 W/m 29,3 km/h (5 Bft)
27.12.2014 18:24 0,2 C -0,6 C 98 % 999,4 hPa 0,2 l/m 0 min 2 min 0 W/m 29,3 km/h (5 Bft)
27.12.2014 18:26 0,2 C -0,6 C 98 % 999,4 hPa 0,0 l/m 0 min 2 min 0 W/m 35,6 km/h (5 Bft)
27.12.2014 18:28 0,2 C -0,6 C 98 % 999,4 hPa 0,0 l/m 0 min 0 min 0 W/m 27,2 km/h (4 Bft)
27.12.2014 18:30 0,2 C -0,6 C 98 % 999,5 hPa 0,0 l/m 0 min 0 min 0 W/m 33,5 km/h (5 Bft)
27.12.2014 18:32 0,2 C -0,6 C 98 % 999,6 hPa 0,0 l/m 0 min 0 min 0 W/m 31,4 km/h (5 Bft)
27.12.2014 18:34 0,2 C -0,6 C 98 % 999,5 hPa 0,0 l/m 0 min 0 min 0 W/m 33,5 km/h (5 Bft)
27.12.2014 18:36 0,2 C -0,6 C 98 % 999,6 hPa 0,0 l/m 0 min 0 min 0 W/m 23,0 km/h (4 Bft)
27.12.2014 18:38 0,2 C -0,6 C 98 % 999,6 hPa 0,0 l/m 0 min 0 min 0 W/m 29,3 km/h (5 Bft)
27.12.2014 18:40 0,2 C -0,6 C 98 % 999,6 hPa 0,0 l/m 0 min 0 min 0 W/m 33,5 km/h (5 Bft)
27.12.2014 18:42 0,2 C -0,6 C 98 % 999,7 hPa 0,0 l/m 0 min 0 min 0 W/m 33,5 km/h (5 Bft)
27.12.2014 18:44 0,2 C -0,6 C 98 % 999,7 hPa 0,0 l/m 0 min 0 min 0 W/m 43,9 km/h (6 Bft)
27.12.2014 18:46 0,2 C -0,6 C 98 % 999,8 hPa 0,0 l/m 0 min 0 min 0 W/m 35,6 km/h (5 Bft)
27.12.2014 18:48 0,2 C -0,6 C 98 % 999,9 hPa 0,0 l/m 0 min 0 min 0 W/m 33,5 km/h (5 Bft)
27.12.2014 18:50 0,2 C -0,6 C 98 % 999,9 hPa 0,0 l/m 0 min 0 min 0 W/m 35,6 km/h (5 Bft)
27.12.2014 18:52 0,1 C -0,6 C 98 % 999,9 hPa 0,0 l/m 0 min 0 min 0 W/m 29,3 km/h (5 Bft)
27.12.2014 18:54 0,1 C -0,6 C 98 % 1000,0 hPa 0,0 l/m 0 min 0 min 0 W/m 54,4 km/h (7 Bft)
27.12.2014 18:56 0,1 C -0,6 C 98 % 1000,0 hPa 0,0 l/m 0 min 0 min 0 W/m 29,3 km/h (5 Bft)
27.12.2014 18:58 0,1 C -0,6 C 98 % 1000,0 hPa 0,0 l/m 0 min 0 min 0 W/m 35,6 km/h (5 Bft)
27.12.2014 19:00 0,1 C -0,6 C 98 % 1000,1 hPa 0,0 l/m 0 min 0 min 0 W/m 33,5 km/h (5 Bft)
27.12.2014 19:02 0,1 C -0,6 C 98 % 1000,1 hPa 0,0 l/m 0 min 0 min 0 W/m 35,6 km/h (5 Bft)
27.12.2014 19:04 0,1 C -0,6 C 98 % 1000,3 hPa 0,0 l/m 0 min 0 min 0 W/m 41,8 km/h (6 Bft)
27.12.2014 19:06 0,1 C -0,6 C 98 % 1000,2 hPa 0,0 l/m 0 min 0 min 0 W/m 37,7 km/h (5 Bft)
27.12.2014 19:08 0,1 C -0,6 C 98 % 1000,3 hPa 0,0 l/m 0 min 0 min 0 W/m 39,7 km/h (6 Bft)
27.12.2014 19:10 0,0 C -1,1 C 98 % 1000,4 hPa 0,0 l/m 0 min 0 min 0 W/m 46,0 km/h (6 Bft)
27.12.2014 19:12 0,0 C -1,1 C 98 % 1000,4 hPa 0,0 l/m 0 min 0 min 0 W/m 35,6 km/h (5 Bft)
27.12.2014 19:14 0,0 C -1,1 C 98 % 1000,5 hPa 0,0 l/m 0 min 0 min 0 W/m 31,4 km/h (5 Bft)
27.12.2014 19:16 0,0 C -1,1 C 98 % 1000,5 hPa 0,0 l/m 0 min 0 min 0 W/m 33,5 km/h (5 Bft)
27.12.2014 19:18 0,0 C -1,1 C 98 % 1000,5 hPa 0,0 l/m 0 min 0 min 0 W/m 37,7 km/h (5 Bft)
27.12.2014 19:20 -0,1 C -1,1 C 98 % 1000,6 hPa 0,0 l/m 0 min 0 min 0 W/m 43,9 km/h (6 Bft)
27.12.2014 19:22 -0,1 C -1,1 C 98 % 1000,6 hPa 0,0 l/m 0 min 0 min 0 W/m 37,7 km/h (5 Bft)
27.12.2014 19:24 -0,1 C -1,1 C 98 % 1000,7 hPa 0,0 l/m 0 min 0 min 0 W/m 31,4 km/h (5 Bft)
27.12.2014 19:26 -0,1 C -1,1 C 98 % 1000,7 hPa 0,0 l/m 0 min 0 min 0 W/m 31,4 km/h (5 Bft)
27.12.2014 19:28 -0,1 C -1,1 C 98 % 1000,8 hPa 0,0 l/m 0 min 0 min 0 W/m 46,0 km/h (6 Bft)
27.12.2014 19:30 -0,1 C -1,1 C 98 % 1000,7 hPa 0,0 l/m 0 min 0 min 0 W/m 37,7 km/h (5 Bft)
27.12.2014 19:32 -0,2 C -1,1 C 97 % 1000,9 hPa 0,0 l/m 0 min 0 min 0 W/m 35,6 km/h (5 Bft)
27.12.2014 19:34 -0,2 C -1,1 C 97 % 1000,9 hPa 0,0 l/m 0 min 0 min 0 W/m 29,3 km/h (5 Bft)
27.12.2014 19:36 -0,2 C -1,1 C 97 % 1001,0 hPa 0,0 l/m 0 min 0 min 0 W/m 23,0 km/h (4 Bft)
27.12.2014 19:38 -0,2 C -1,1 C 97 % 1001,0 hPa 0,0 l/m 0 min 0 min 0 W/m 35,6 km/h (5 Bft)
27.12.2014 19:40 -0,2 C -1,1 C 97 % 1001,0 hPa 0,0 l/m 0 min 0 min 0 W/m 43,9 km/h (6 Bft)
27.12.2014 19:42 -0,2 C -1,1 C 97 % 1001,0 hPa 0,0 l/m 0 min 0 min 0 W/m 33,5 km/h (5 Bft)
27.12.2014 19:44 -0,2 C -1,1 C 97 % 1001,0 hPa 0,0 l/m 0 min 0 min 0 W/m 37,7 km/h (5 Bft)
27.12.2014 19:46 -0,2 C -1,1 C 97 % 1001,2 hPa 0,0 l/m 0 min 0 min 0 W/m 33,5 km/h (5 Bft)
27.12.2014 19:48 -0,2 C -1,1 C 97 % 1001,2 hPa 0,0 l/m 0 min 0 min 0 W/m 27,2 km/h (4 Bft)
27.12.2014 19:50 -0,2 C -1,1 C 97 % 1001,2 hPa 0,0 l/m 0 min 0 min 0 W/m 46,0 km/h (6 Bft)
27.12.2014 19:52 -0,2 C -1,1 C 97 % 1001,3 hPa 0,0 l/m 0 min 0 min 0 W/m 31,4 km/h (5 Bft)
27.12.2014 19:54 -0,2 C -1,1 C 97 % 1001,3 hPa 0,0 l/m 0 min 0 min 0 W/m 33,5 km/h (5 Bft)
27.12.2014 19:56 -0,2 C -1,1 C 97 % 1001,3 hPa 0,0 l/m 0 min 0 min 0 W/m 35,6 km/h (5 Bft)
27.12.2014 19:58 -0,2 C -1,1 C 96 % 1001,4 hPa 0,0 l/m 0 min 0 min 0 W/m 27,2 km/h (4 Bft)
27.12.2014 20:00 -0,2 C -1,1 C 96 % 1001,4 hPa 0,2 l/m 0 min 0 min 0 W/m 39,7 km/h (6 Bft)
27.12.2014 20:02 -0,2 C -1,1 C 96 % 1001,4 hPa 0,0 l/m 0 min 0 min 0 W/m 43,9 km/h (6 Bft)
27.12.2014 20:04 -0,2 C -1,1 C 96 % 1001,5 hPa 0,0 l/m 0 min 0 min 0 W/m 35,6 km/h (5 Bft)
27.12.2014 20:06 -0,2 C -1,1 C 96 % 1001,6 hPa 0,0 l/m 0 min 0 min 0 W/m 37,7 km/h (5 Bft)
27.12.2014 20:08 -0,1 C -1,1 C 95 % 1001,6 hPa 0,0 l/m 0 min 0 min 0 W/m 25,1 km/h (4 Bft)
27.12.2014 20:10 -0,1 C -1,1 C 95 % 1001,6 hPa 0,0 l/m 0 min 0 min 0 W/m 29,3 km/h (5 Bft)
27.12.2014 20:12 -0,1 C -1,1 C 95 % 1001,8 hPa 0,0 l/m 0 min 0 min 0 W/m 50,2 km/h (7 Bft)
27.12.2014 20:14 -0,1 C -1,1 C 94 % 1001,9 hPa 0,0 l/m 0 min 0 min 0 W/m 31,4 km/h (5 Bft)
27.12.2014 20:16 -0,1 C -1,1 C 94 % 1001,9 hPa 0,0 l/m 0 min 0 min 0 W/m 33,5 km/h (5 Bft)
27.12.2014 20:18 -0,1 C -1,1 C 93 % 1001,9 hPa 0,0 l/m 0 min 0 min 0 W/m 41,8 km/h (6 Bft)
27.12.2014 20:20 -0,1 C -1,1 C 93 % 1002,0 hPa 0,0 l/m 0 min 0 min 0 W/m 29,3 km/h (5 Bft)
27.12.2014 20:22 -0,1 C -1,1 C 92 % 1002,1 hPa 0,0 l/m 0 min 0 min 0 W/m 31,4 km/h (5 Bft)
27.12.2014 20:24 -0,1 C -1,1 C 92 % 1002,0 hPa 0,0 l/m 0 min 0 min 0 W/m 39,7 km/h (6 Bft)
27.12.2014 20:26 -0,1 C -1,1 C 91 % 1002,1 hPa 0,0 l/m 0 min 0 min 0 W/m 31,4 km/h (5 Bft)
27.12.2014 20:28 -0,1 C -1,1 C 91 % 1002,0 hPa 0,0 l/m 0 min 0 min 0 W/m 29,3 km/h (5 Bft)
27.12.2014 20:30 -0,1 C -1,1 C 91 % 1002,1 hPa 0,0 l/m 0 min 0 min 0 W/m 37,7 km/h (5 Bft)
27.12.2014 20:32 -0,1 C -1,1 C 90 % 1002,2 hPa 0,0 l/m 0 min 0 min 0 W/m 33,5 km/h (5 Bft)
27.12.2014 20:34 -0,1 C -1,1 C 89 % 1002,3 hPa 0,0 l/m 0 min 0 min 0 W/m 35,6 km/h (5 Bft)
27.12.2014 20:36 -0,1 C -1,1 C 89 % 1002,3 hPa 0,0 l/m 0 min 0 min 0 W/m 35,6 km/h (5 Bft)
27.12.2014 20:38 -0,1 C -1,1 C 88 % 1002,3 hPa 0,0 l/m 0 min 0 min 0 W/m 37,7 km/h (5 Bft)
27.12.2014 20:40 -0,1 C -1,1 C 88 % 1002,2 hPa 0,0 l/m 0 min 0 min 0 W/m 33,5 km/h (5 Bft)
27.12.2014 20:42 -0,1 C -1,1 C 87 % 1002,4 hPa 0,0 l/m 0 min 0 min 0 W/m 29,3 km/h (5 Bft)
27.12.2014 20:44 -0,1 C -1,1 C 87 % 1002,4 hPa 0,0 l/m 0 min 0 min 0 W/m 31,4 km/h (5 Bft)
27.12.2014 20:46 -0,1 C -1,1 C 87 % 1002,4 hPa 0,0 l/m 0 min 0 min 0 W/m 39,7 km/h (6 Bft)
27.12.2014 20:48 -0,1 C -1,1 C 86 % 1002,5 hPa 0,0 l/m 0 min 0 min 0 W/m 39,7 km/h (6 Bft)
27.12.2014 20:50 0,0 C -1,1 C 86 % 1002,4 hPa 0,0 l/m 0 min 0 min 0 W/m 27,2 km/h (4 Bft)
27.12.2014 20:52 -0,1 C -1,1 C 86 % 1002,5 hPa 0,0 l/m 0 min 0 min 0 W/m 39,7 km/h (6 Bft)
27.12.2014 20:54 -0,1 C -1,1 C 85 % 1002,6 hPa 0,0 l/m 0 min 0 min 0 W/m 46,0 km/h (6 Bft)
27.12.2014 20:56 0,0 C -1,1 C 85 % 1002,6 hPa 0,0 l/m 0 min 0 min 0 W/m 33,5 km/h (5 Bft)
27.12.2014 20:58 0,0 C -1,1 C 85 % 1002,6 hPa 0,0 l/m 0 min 0 min 0 W/m 39,7 km/h (6 Bft)
27.12.2014 21:00 -0,1 C -1,1 C 84 % 1002,7 hPa 0,0 l/m 0 min 0 min 0 W/m 29,3 km/h (5 Bft)
27.12.2014 21:02 -0,1 C -1,1 C 84 % 1002,7 hPa 0,0 l/m 0 min 0 min 0 W/m 41,8 km/h (6 Bft)
27.12.2014 21:04 -0,1 C -1,1 C 84 % 1002,8 hPa 0,0 l/m 0 min 0 min 0 W/m 39,7 km/h (6 Bft)
27.12.2014 21:06 -0,1 C -1,1 C 84 % 1002,8 hPa 0,0 l/m 0 min 0 min 0 W/m 31,4 km/h (5 Bft)
27.12.2014 21:08 -0,1 C -1,1 C 84 % 1002,8 hPa 0,0 l/m 0 min 0 min 0 W/m 41,8 km/h (6 Bft)
27.12.2014 21:10 -0,1 C -1,1 C 83 % 1002,9 hPa 0,0 l/m 0 min 0 min 0 W/m 39,7 km/h (6 Bft)
27.12.2014 21:12 -0,1 C -1,1 C 83 % 1002,9 hPa 0,0 l/m 0 min 0 min 0 W/m 27,2 km/h (4 Bft)
27.12.2014 21:14 -0,1 C -1,1 C 83 % 1003,0 hPa 0,0 l/m 0 min 0 min 0 W/m 37,7 km/h (5 Bft)
27.12.2014 21:16 -0,1 C -1,1 C 83 % 1003,1 hPa 0,0 l/m 0 min 0 min 0 W/m 33,5 km/h (5 Bft)
27.12.2014 21:18 -0,1 C -1,1 C 82 % 1003,1 hPa 0,0 l/m 0 min 0 min 0 W/m 54,4 km/h (7 Bft)
27.12.2014 21:20 -0,1 C -1,1 C 82 % 1003,1 hPa 0,0 l/m 0 min 0 min 0 W/m 54,4 km/h (7 Bft)
27.12.2014 21:22 -0,1 C -1,1 C 82 % 1003,2 hPa 0,0 l/m 0 min 0 min 0 W/m 35,6 km/h (5 Bft)
27.12.2014 21:24 -0,1 C -1,1 C 82 % 1003,3 hPa 0,0 l/m 0 min 0 min 0 W/m 48,1 km/h (6 Bft)
27.12.2014 21:26 -0,1 C -1,1 C 82 % 1003,3 hPa 0,0 l/m 0 min 0 min 0 W/m 29,3 km/h (5 Bft)
27.12.2014 21:28 -0,1 C -1,1 C 81 % 1003,4 hPa 0,0 l/m 0 min 0 min 0 W/m 31,4 km/h (5 Bft)
27.12.2014 21:30 -0,1 C -1,1 C 81 % 1003,5 hPa 0,0 l/m 0 min 0 min 0 W/m 43,9 km/h (6 Bft)
27.12.2014 21:32 -0,1 C -1,1 C 81 % 1003,5 hPa 0,0 l/m 0 min 0 min 0 W/m 23,0 km/h (4 Bft)
27.12.2014 21:34 -0,1 C -1,7 C 81 % 1003,6 hPa 0,0 l/m 0 min 0 min 0 W/m 33,5 km/h (5 Bft)
27.12.2014 21:36 -0,1 C -1,1 C 81 % 1003,6 hPa 0,0 l/m 0 min 0 min 0 W/m 33,5 km/h (5 Bft)
27.12.2014 21:38 -0,1 C -1,1 C 82 % 1003,7 hPa 0,0 l/m 0 min 0 min 0 W/m 41,8 km/h (6 Bft)
27.12.2014 21:40 -0,1 C -1,1 C 82 % 1003,7 hPa 0,0 l/m 0 min 0 min 0 W/m 31,4 km/h (5 Bft)
27.12.2014 21:42 -0,1 C -1,1 C 82 % 1003,7 hPa 0,0 l/m 0 min 0 min 0 W/m 39,7 km/h (6 Bft)
27.12.2014 21:44 -0,1 C -1,1 C 82 % 1003,9 hPa 0,0 l/m 0 min 0 min 0 W/m 48,1 km/h (6 Bft)
27.12.2014 21:46 -0,1 C -1,1 C 82 % 1003,8 hPa 0,0 l/m 0 min 0 min 0 W/m 35,6 km/h (5 Bft)
27.12.2014 21:48 -0,1 C -1,1 C 82 % 1004,0 hPa 0,0 l/m 0 min 0 min 0 W/m 25,1 km/h (4 Bft)
27.12.2014 21:50 -0,1 C -1,1 C 82 % 1004,0 hPa 0,0 l/m 0 min 0 min 0 W/m 33,5 km/h (5 Bft)
27.12.2014 21:52 -0,1 C -1,1 C 82 % 1004,0 hPa 0,0 l/m 0 min 0 min 0 W/m 35,6 km/h (5 Bft)
27.12.2014 21:54 -0,1 C -1,1 C 82 % 1004,0 hPa 0,0 l/m 0 min 0 min 0 W/m 54,4 km/h (7 Bft)
27.12.2014 21:56 -0,1 C -1,1 C 82 % 1004,1 hPa 0,0 l/m 0 min 0 min 0 W/m 37,7 km/h (5 Bft)
27.12.2014 21:58 -0,1 C -1,1 C 82 % 1004,2 hPa 0,0 l/m 0 min 0 min 0 W/m 41,8 km/h (6 Bft)
27.12.2014 22:00 -0,1 C -1,1 C 82 % 1004,2 hPa 0,0 l/m 0 min 0 min 0 W/m 31,4 km/h (5 Bft)
27.12.2014 22:02 -0,1 C -1,1 C 82 % 1004,3 hPa 0,0 l/m 0 min 0 min 0 W/m 31,4 km/h (5 Bft)
27.12.2014 22:04 -0,1 C -1,1 C 82 % 1004,3 hPa 0,0 l/m 0 min 0 min 0 W/m 43,9 km/h (6 Bft)
27.12.2014 22:06 -0,1 C -1,1 C 82 % 1004,4 hPa 0,0 l/m 0 min 0 min 0 W/m 33,5 km/h (5 Bft)
27.12.2014 22:08 -0,1 C -1,1 C 82 % 1004,5 hPa 0,0 l/m 0 min 0 min 0 W/m 31,4 km/h (5 Bft)
27.12.2014 22:10 -0,1 C -1,7 C 82 % 1004,5 hPa 0,0 l/m 0 min 0 min 0 W/m 27,2 km/h (4 Bft)
27.12.2014 22:12 -0,1 C -1,7 C 82 % 1004,6 hPa 0,0 l/m 0 min 0 min 0 W/m 29,3 km/h (5 Bft)
27.12.2014 22:14 -0,1 C -1,7 C 82 % 1004,5 hPa 0,0 l/m 0 min 0 min 0 W/m 37,7 km/h (5 Bft)
27.12.2014 22:16 -0,1 C -1,1 C 82 % 1004,6 hPa 0,0 l/m 0 min 0 min 0 W/m 33,5 km/h (5 Bft)
27.12.2014 22:18 -0,1 C -1,1 C 82 % 1004,7 hPa 0,0 l/m 0 min 0 min 0 W/m 33,5 km/h (5 Bft)
27.12.2014 22:20 -0,1 C -1,7 C 81 % 1004,7 hPa 0,0 l/m 0 min 0 min 0 W/m 35,6 km/h (5 Bft)
27.12.2014 22:22 -0,1 C -1,7 C 81 % 1004,7 hPa 0,0 l/m 0 min 0 min 0 W/m 29,3 km/h (5 Bft)
27.12.2014 22:24 -0,1 C -1,7 C 81 % 1004,7 hPa 0,0 l/m 0 min 0 min 0 W/m 43,9 km/h (6 Bft)
27.12.2014 22:26 -0,1 C -1,7 C 81 % 1004,8 hPa 0,0 l/m 0 min 0 min 0 W/m 35,6 km/h (5 Bft)
27.12.2014 22:28 -0,1 C -1,7 C 81 % 1004,8 hPa 0,0 l/m 0 min 0 min 0 W/m 37,7 km/h (5 Bft)
27.12.2014 22:30 -0,2 C -1,7 C 81 % 1004,8 hPa 0,0 l/m 0 min 0 min 0 W/m 52,3 km/h (7 Bft)
27.12.2014 22:32 -0,2 C -1,7 C 81 % 1004,8 hPa 0,0 l/m 0 min 0 min 0 W/m 31,4 km/h (5 Bft)
27.12.2014 22:34 -0,2 C -1,7 C 80 % 1004,9 hPa 0,0 l/m 0 min 0 min 0 W/m 31,4 km/h (5 Bft)
27.12.2014 22:36 -0,2 C -1,7 C 81 % 1005,0 hPa 0,0 l/m 0 min 0 min 0 W/m 39,7 km/h (6 Bft)
27.12.2014 22:38 -0,2 C -1,7 C 81 % 1005,0 hPa 0,0 l/m 0 min 0 min 0 W/m 33,5 km/h (5 Bft)
27.12.2014 22:40 -0,2 C -1,7 C 81 % 1005,0 hPa 0,0 l/m 0 min 0 min 0 W/m 35,6 km/h (5 Bft)
27.12.2014 22:42 -0,2 C -1,7 C 81 % 1005,0 hPa 0,0 l/m 0 min 0 min 0 W/m 33,5 km/h (5 Bft)
27.12.2014 22:44 -0,2 C -1,7 C 81 % 1005,0 hPa 0,0 l/m 0 min 0 min 0 W/m 35,6 km/h (5 Bft)
27.12.2014 22:46 -0,2 C -1,7 C 81 % 1005,0 hPa 0,0 l/m 0 min 0 min 0 W/m 46,0 km/h (6 Bft)
27.12.2014 22:48 -0,2 C -1,7 C 81 % 1005,1 hPa 0,0 l/m 0 min 0 min 0 W/m 37,7 km/h (5 Bft)
27.12.2014 22:50 -0,2 C -1,7 C 81 % 1005,2 hPa 0,0 l/m 0 min 0 min 0 W/m 33,5 km/h (5 Bft)
27.12.2014 22:52 -0,3 C -1,7 C 81 % 1005,3 hPa 0,0 l/m 0 min 0 min 0 W/m 23,0 km/h (4 Bft)
27.12.2014 22:54 -0,3 C -1,7 C 81 % 1005,3 hPa 0,0 l/m 0 min 0 min 0 W/m 37,7 km/h (5 Bft)
27.12.2014 22:56 -0,3 C -1,7 C 81 % 1005,4 hPa 0,0 l/m 0 min 0 min 0 W/m 31,4 km/h (5 Bft)
27.12.2014 22:58 -0,3 C -1,7 C 81 % 1005,5 hPa 0,0 l/m 0 min 0 min 0 W/m 27,2 km/h (4 Bft)
27.12.2014 23:00 -0,4 C -1,7 C 81 % 1005,5 hPa 0,0 l/m 0 min 0 min 0 W/m 37,7 km/h (5 Bft)
27.12.2014 23:02 -0,4 C -1,7 C 81 % 1005,6 hPa 0,0 l/m 0 min 0 min 0 W/m 33,5 km/h (5 Bft)
27.12.2014 23:04 -0,4 C -1,7 C 81 % 1005,7 hPa 0,0 l/m 0 min 0 min 0 W/m 33,5 km/h (5 Bft)
27.12.2014 23:06 -0,4 C -1,7 C 81 % 1005,7 hPa 0,0 l/m 0 min 0 min 0 W/m 23,0 km/h (4 Bft)
27.12.2014 23:08 -0,4 C -1,7 C 81 % 1005,7 hPa 0,0 l/m 0 min 0 min 0 W/m 39,7 km/h (6 Bft)
27.12.2014 23:10 -0,4 C -1,7 C 81 % 1005,7 hPa 0,0 l/m 0 min 0 min 0 W/m 41,8 km/h (6 Bft)
27.12.2014 23:12 -0,5 C -1,7 C 81 % 1005,7 hPa 0,0 l/m 0 min 0 min 0 W/m 35,6 km/h (5 Bft)
27.12.2014 23:14 -0,6 C -1,7 C 81 % 1005,8 hPa 0,0 l/m 0 min 0 min 0 W/m 31,4 km/h (5 Bft)
27.12.2014 23:16 -0,6 C -1,7 C 81 % 1005,8 hPa 0,0 l/m 0 min 0 min 0 W/m 29,3 km/h (5 Bft)
27.12.2014 23:18 -0,6 C -2,2 C 81 % 1006,0 hPa 0,0 l/m 0 min 0 min 0 W/m 46,0 km/h (6 Bft)
27.12.2014 23:20 -0,6 C -1,7 C 81 % 1006,0 hPa 0,0 l/m 0 min 0 min 0 W/m 43,9 km/h (6 Bft)
27.12.2014 23:22 -0,6 C -1,7 C 81 % 1006,2 hPa 0,0 l/m 0 min 0 min 0 W/m 37,7 km/h (5 Bft)
27.12.2014 23:24 -0,7 C -1,7 C 81 % 1006,1 hPa 0,0 l/m 0 min 0 min 0 W/m 37,7 km/h (5 Bft)
27.12.2014 23:26 -0,7 C -1,7 C 81 % 1006,1 hPa 0,0 l/m 0 min 0 min 0 W/m 39,7 km/h (6 Bft)
27.12.2014 23:28 -0,7 C -1,7 C 81 % 1006,2 hPa 0,0 l/m 0 min 0 min 0 W/m 27,2 km/h (4 Bft)
27.12.2014 23:30 -0,7 C -1,7 C 81 % 1006,2 hPa 0,0 l/m 0 min 0 min 0 W/m 33,5 km/h (5 Bft)
27.12.2014 23:32 -0,7 C -1,7 C 81 % 1006,2 hPa 0,0 l/m 0 min 0 min 0 W/m 23,0 km/h (4 Bft)
27.12.2014 23:34 -0,7 C -1,7 C 81 % 1006,2 hPa 0,0 l/m 0 min 0 min 0 W/m 29,3 km/h (5 Bft)
27.12.2014 23:36 -0,7 C -1,7 C 81 % 1006,4 hPa 0,0 l/m 0 min 0 min 0 W/m 33,5 km/h (5 Bft)
27.12.2014 23:38 -0,7 C -1,7 C 81 % 1006,4 hPa 0,0 l/m 0 min 0 min 0 W/m 25,1 km/h (4 Bft)
27.12.2014 23:40 -0,7 C -1,7 C 81 % 1006,4 hPa 0,0 l/m 0 min 0 min 0 W/m 41,8 km/h (6 Bft)
27.12.2014 23:42 -0,7 C -1,7 C 81 % 1006,5 hPa 0,0 l/m 0 min 0 min 0 W/m 29,3 km/h (5 Bft)
27.12.2014 23:44 -0,7 C -1,7 C 81 % 1006,6 hPa 0,0 l/m 0 min 0 min 0 W/m 31,4 km/h (5 Bft)
27.12.2014 23:46 -0,7 C -2,2 C 81 % 1006,6 hPa 0,0 l/m 0 min 0 min 0 W/m 29,3 km/h (5 Bft)
27.12.2014 23:48 -0,7 C -1,7 C 81 % 1006,7 hPa 0,0 l/m 0 min 0 min 0 W/m 35,6 km/h (5 Bft)
27.12.2014 23:50 -0,8 C -1,7 C 81 % 1006,7 hPa 0,0 l/m 0 min 0 min 0 W/m 27,2 km/h (4 Bft)
27.12.2014 23:52 -0,8 C -2,2 C 81 % 1007,0 hPa 0,0 l/m 0 min 0 min 0 W/m 29,3 km/h (5 Bft)
27.12.2014 23:54 -0,8 C -2,2 C 81 % 1006,9 hPa 0,0 l/m 0 min 0 min 0 W/m 27,2 km/h (4 Bft)
27.12.2014 23:56 -0,8 C -2,2 C 81 % 1007,0 hPa 0,0 l/m 0 min 0 min 0 W/m 31,4 km/h (5 Bft)
27.12.2014 23:58 -0,8 C -2,2 C 81 % 1007,0 hPa 0,0 l/m 0 min 0 min 0 W/m 37,7 km/h (5 Bft)
_ Min-Zeit 23:50 23:18 22:34 12:42 - - - - 00:02
Minimum _ -0,8 C -2,2 C 80 % 995,7 hPa - - - - 12,6 km/h (3 Bft)
_ Max-Zeit 03:16 00:00 10:28 00:00 03:50 00:00 03:20 14:00 06:10
Maximum _ 2,4 C 1,1 C 98 % 1017,0 hPa 0,2 l/m 0 min 2 min 51 W/m 66,9 km/h
O (8 Bft)
Durchschnitt _ 0,6 C -0,6 C 94 % 1001,5 hPa #11,2 l/m #0 min. #14:28 h 23 W/m 32,2 km/h (5 Bft)
© 2015 W. Hausmann